Wetterdaten: Dienstag, 22.10.2013
Datum Zeit Temp. Aussen +5cm Feuchte Auss Luftdruck Regen Sonnenschein Regendauer UV Solar Windben
22.10.2013 00:00 13,8 C 12,2 C 93 % 1011,6 hPa 0,0 l/m 0 min 0 min 0,0 UV-I 0 W/m 7,7 km/h (2 Bft)
22.10.2013 00:02 13,8 C 12,2 C 93 % 1011,6 hPa 0,0 l/m 0 min 0 min 0,0 UV-I 0 W/m 5,1 km/h (1 Bft)
22.10.2013 00:06 13,8 C 12,2 C 93 % 1011,6 hPa 0,0 l/m 0 min 0 min 0,0 UV-I 0 W/m 7,7 km/h (2 Bft)
22.10.2013 00:08 13,8 C 12,2 C 93 % 1011,6 hPa 0,0 l/m 0 min 0 min 0,0 UV-I 0 W/m 0,0 km/h (0 Bft)
22.10.2013 00:10 13,8 C 12,2 C 93 % 1011,6 hPa 0,0 l/m 0 min 0 min 0,0 UV-I 0 W/m 0,0 km/h (0 Bft)
22.10.2013 00:12 13,8 C 12,2 C 93 % 1011,6 hPa 0,0 l/m 0 min 0 min 0,0 UV-I 0 W/m 2,6 km/h (1 Bft)
22.10.2013 00:14 13,8 C 12,2 C 93 % 1011,6 hPa 0,0 l/m 0 min 0 min 0,0 UV-I 0 W/m 0,0 km/h (0 Bft)
22.10.2013 00:16 13,7 C 12,2 C 93 % 1011,5 hPa 0,0 l/m 0 min 0 min 0,0 UV-I 0 W/m 0,0 km/h (0 Bft)
22.10.2013 00:18 13,7 C 12,2 C 93 % 1011,4 hPa 0,0 l/m 0 min 0 min 0,0 UV-I 0 W/m 0,0 km/h (0 Bft)
22.10.2013 00:20 13,7 C 12,2 C 93 % 1011,3 hPa 0,0 l/m 0 min 0 min 0,0 UV-I 0 W/m 0,0 km/h (0 Bft)
22.10.2013 00:22 13,7 C 12,2 C 93 % 1011,4 hPa 0,0 l/m 0 min 0 min 0,0 UV-I 0 W/m 0,0 km/h (0 Bft)
22.10.2013 00:24 13,7 C 12,2 C 93 % 1011,5 hPa 0,0 l/m 0 min 0 min 0,0 UV-I 0 W/m 2,6 km/h (1 Bft)
22.10.2013 00:26 13,6 C 12,2 C 93 % 1011,4 hPa 0,0 l/m 0 min 0 min 0,0 UV-I 0 W/m 0,0 km/h (0 Bft)
22.10.2013 00:28 13,6 C 12,2 C 93 % 1011,4 hPa 0,0 l/m 0 min 0 min 0,0 UV-I 0 W/m 0,0 km/h (0 Bft)
22.10.2013 00:30 13,6 C 11,7 C 93 % 1011,3 hPa 0,0 l/m 0 min 0 min 0,0 UV-I 0 W/m 0,0 km/h (0 Bft)
22.10.2013 00:32 13,6 C 11,7 C 93 % 1011,3 hPa 0,0 l/m 0 min 0 min 0,0 UV-I 0 W/m 0,0 km/h (0 Bft)
22.10.2013 00:34 13,6 C 11,7 C 94 % 1011,2 hPa 0,0 l/m 0 min 0 min 0,0 UV-I 0 W/m 2,6 km/h (1 Bft)
22.10.2013 00:36 13,5 C 11,7 C 94 % 1011,3 hPa 0,0 l/m 0 min 0 min 0,0 UV-I 0 W/m 0,0 km/h (0 Bft)
22.10.2013 00:38 13,5 C 11,7 C 94 % 1011,2 hPa 0,0 l/m 0 min 0 min 0,0 UV-I 0 W/m 0,0 km/h (0 Bft)
22.10.2013 00:40 13,5 C 11,7 C 94 % 1011,2 hPa 0,0 l/m 0 min 0 min 0,0 UV-I 0 W/m 0,0 km/h (0 Bft)
22.10.2013 00:42 13,4 C 11,7 C 94 % 1011,2 hPa 0,0 l/m 0 min 0 min 0,0 UV-I 0 W/m 2,6 km/h (1 Bft)
22.10.2013 00:44 13,4 C 11,7 C 94 % 1011,2 hPa 0,0 l/m 0 min 0 min 0,0 UV-I 0 W/m 0,0 km/h (0 Bft)
22.10.2013 00:46 13,4 C 11,7 C 94 % 1011,2 hPa 0,0 l/m 0 min 0 min 0,0 UV-I 0 W/m 0,0 km/h (0 Bft)
22.10.2013 00:48 13,4 C 11,7 C 94 % 1011,1 hPa 0,0 l/m 0 min 0 min 0,0 UV-I 0 W/m 2,6 km/h (1 Bft)
22.10.2013 00:50 13,4 C 11,7 C 94 % 1011,1 hPa 0,0 l/m 0 min 0 min 0,0 UV-I 0 W/m 0,0 km/h (0 Bft)
22.10.2013 00:52 13,4 C 11,7 C 94 % 1011,1 hPa 0,0 l/m 0 min 0 min 0,0 UV-I 0 W/m 0,0 km/h (0 Bft)
22.10.2013 00:54 13,3 C 11,7 C 94 % 1011,1 hPa 0,0 l/m 0 min 0 min 0,0 UV-I 0 W/m 0,0 km/h (0 Bft)
22.10.2013 00:56 13,3 C 11,7 C 94 % 1011,1 hPa 0,0 l/m 0 min 0 min 0,0 UV-I 0 W/m 0,0 km/h (0 Bft)
22.10.2013 00:58 13,3 C 11,7 C 94 % 1011,1 hPa 0,0 l/m 0 min 0 min 0,0 UV-I 0 W/m 0,0 km/h (0 Bft)
22.10.2013 01:00 13,3 C 11,7 C 94 % 1011,1 hPa 0,0 l/m 0 min 0 min 0,0 UV-I 0 W/m 2,6 km/h (1 Bft)
22.10.2013 01:02 13,2 C 11,7 C 94 % 1011,1 hPa 0,0 l/m 0 min 0 min 0,0 UV-I 0 W/m 0,0 km/h (0 Bft)
22.10.2013 01:06 13,2 C 11,7 C 94 % 1011,0 hPa 0,0 l/m 0 min 0 min 0,0 UV-I 0 W/m 2,6 km/h (1 Bft)
22.10.2013 01:08 13,2 C 11,7 C 94 % 1011,0 hPa 0,0 l/m 0 min 0 min 0,0 UV-I 0 W/m 10,3 km/h (2 Bft)
22.10.2013 01:10 13,2 C 11,7 C 95 % 1010,8 hPa 0,0 l/m 0 min 0 min 0,0 UV-I 0 W/m 5,1 km/h (1 Bft)
22.10.2013 01:12 13,2 C 11,7 C 95 % 1010,9 hPa 0,0 l/m 0 min 0 min 0,0 UV-I 0 W/m 10,3 km/h (2 Bft)
22.10.2013 01:14 13,2 C 11,7 C 95 % 1011,0 hPa 0,0 l/m 0 min 0 min 0,0 UV-I 0 W/m 7,7 km/h (2 Bft)
22.10.2013 01:16 13,2 C 11,7 C 95 % 1011,0 hPa 0,0 l/m 0 min 0 min 0,0 UV-I 0 W/m 10,3 km/h (2 Bft)
22.10.2013 01:18 13,2 C 11,7 C 95 % 1010,9 hPa 0,0 l/m 0 min 0 min 0,0 UV-I 0 W/m 7,7 km/h (2 Bft)
22.10.2013 01:20 13,2 C 11,7 C 95 % 1010,9 hPa 0,0 l/m 0 min 0 min 0,0 UV-I 0 W/m 5,1 km/h (1 Bft)
22.10.2013 01:22 13,2 C 12,2 C 95 % 1010,9 hPa 0,0 l/m 0 min 0 min 0,0 UV-I 0 W/m 7,7 km/h (2 Bft)
22.10.2013 01:24 13,2 C 12,2 C 95 % 1010,8 hPa 0,0 l/m 0 min 0 min 0,0 UV-I 0 W/m 7,7 km/h (2 Bft)
22.10.2013 01:26 13,2 C 12,2 C 95 % 1010,8 hPa 0,0 l/m 0 min 0 min 0,0 UV-I 0 W/m 7,7 km/h (2 Bft)
22.10.2013 01:28 13,3 C 12,2 C 95 % 1010,8 hPa 0,0 l/m 0 min 0 min 0,0 UV-I 0 W/m 7,7 km/h (2 Bft)
22.10.2013 01:30 13,3 C 12,2 C 95 % 1010,8 hPa 0,0 l/m 0 min 0 min 0,0 UV-I 0 W/m 12,9 km/h (3 Bft)
22.10.2013 01:32 13,3 C 12,2 C 95 % 1010,7 hPa 0,0 l/m 0 min 0 min 0,0 UV-I 0 W/m 10,3 km/h (2 Bft)
22.10.2013 01:34 13,3 C 12,2 C 95 % 1010,7 hPa 0,0 l/m 0 min 0 min 0,0 UV-I 0 W/m 7,7 km/h (2 Bft)
22.10.2013 01:36 13,3 C 12,2 C 95 % 1010,7 hPa 0,0 l/m 0 min 0 min 0,0 UV-I 0 W/m 2,6 km/h (1 Bft)
22.10.2013 01:38 13,3 C 12,2 C 95 % 1010,7 hPa 0,0 l/m 0 min 0 min 0,0 UV-I 0 W/m 7,7 km/h (2 Bft)
22.10.2013 01:40 13,3 C 12,2 C 95 % 1010,8 hPa 0,0 l/m 0 min 0 min 0,0 UV-I 0 W/m 10,3 km/h (2 Bft)
22.10.2013 01:42 13,4 C 12,2 C 95 % 1010,7 hPa 0,0 l/m 0 min 0 min 0,0 UV-I 0 W/m 2,6 km/h (1 Bft)
22.10.2013 01:44 13,4 C 12,2 C 95 % 1010,7 hPa 0,0 l/m 0 min 0 min 0,0 UV-I 0 W/m 7,7 km/h (2 Bft)
22.10.2013 01:46 13,4 C 12,2 C 95 % 1010,7 hPa 0,0 l/m 0 min 0 min 0,0 UV-I 0 W/m 10,3 km/h (2 Bft)
22.10.2013 01:48 13,4 C 12,2 C 95 % 1010,7 hPa 0,0 l/m 0 min 0 min 0,0 UV-I 0 W/m 10,3 km/h (2 Bft)
22.10.2013 01:50 13,4 C 12,2 C 95 % 1010,8 hPa 0,0 l/m 0 min 0 min 0,0 UV-I 0 W/m 10,3 km/h (2 Bft)
22.10.2013 01:52 13,4 C 12,2 C 95 % 1010,8 hPa 0,0 l/m 0 min 0 min 0,0 UV-I 0 W/m 10,3 km/h (2 Bft)
22.10.2013 01:54 13,4 C 12,2 C 95 % 1010,8 hPa 0,0 l/m 0 min 0 min 0,0 UV-I 0 W/m 10,3 km/h (2 Bft)
22.10.2013 01:56 13,5 C 12,2 C 95 % 1010,8 hPa 0,0 l/m 0 min 0 min 0,0 UV-I 0 W/m 5,1 km/h (1 Bft)
22.10.2013 01:58 13,5 C 12,2 C 95 % 1010,7 hPa 0,0 l/m 0 min 0 min 0,0 UV-I 0 W/m 2,6 km/h (1 Bft)
22.10.2013 02:00 13,5 C 12,2 C 95 % 1010,7 hPa 0,0 l/m 0 min 0 min 0,0 UV-I 0 W/m 0,0 km/h (0 Bft)
22.10.2013 02:02 13,5 C 12,2 C 95 % 1010,7 hPa 0,0 l/m 0 min 0 min 0,0 UV-I 0 W/m 7,7 km/h (2 Bft)
22.10.2013 02:06 13,6 C 12,2 C 95 % 1010,7 hPa 0,0 l/m 0 min 0 min 0,0 UV-I 0 W/m 7,7 km/h (2 Bft)
22.10.2013 02:08 13,6 C 12,2 C 95 % 1010,7 hPa 0,0 l/m 0 min 0 min 0,0 UV-I 0 W/m 2,6 km/h (1 Bft)
22.10.2013 02:10 13,6 C 12,2 C 95 % 1010,8 hPa 0,0 l/m 0 min 0 min 0,0 UV-I 0 W/m 2,6 km/h (1 Bft)
22.10.2013 02:12 13,6 C 12,2 C 95 % 1010,7 hPa 0,0 l/m 0 min 0 min 0,0 UV-I 0 W/m 12,9 km/h (3 Bft)
22.10.2013 02:14 13,6 C 12,8 C 95 % 1010,7 hPa 0,0 l/m 0 min 0 min 0,0 UV-I 0 W/m 10,3 km/h (2 Bft)
22.10.2013 02:16 13,6 C 12,8 C 95 % 1010,7 hPa 0,0 l/m 0 min 0 min 0,0 UV-I 0 W/m 10,3 km/h (2 Bft)
22.10.2013 02:18 13,6 C 12,8 C 95 % 1010,6 hPa 0,0 l/m 0 min 0 min 0,0 UV-I 0 W/m 10,3 km/h (2 Bft)
22.10.2013 02:20 13,7 C 12,8 C 95 % 1010,6 hPa 0,0 l/m 0 min 0 min 0,0 UV-I 0 W/m 10,3 km/h (2 Bft)
22.10.2013 02:22 13,7 C 12,8 C 95 % 1010,6 hPa 0,0 l/m 0 min 0 min 0,0 UV-I 0 W/m 15,4 km/h (3 Bft)
22.10.2013 02:24 13,7 C 12,8 C 95 % 1010,7 hPa 0,0 l/m 0 min 0 min 0,0 UV-I 0 W/m 7,7 km/h (2 Bft)
22.10.2013 02:26 13,7 C 12,8 C 95 % 1010,6 hPa 0,0 l/m 0 min 0 min 0,0 UV-I 0 W/m 10,3 km/h (2 Bft)
22.10.2013 02:28 13,7 C 12,8 C 95 % 1010,6 hPa 0,0 l/m 0 min 0 min 0,0 UV-I 0 W/m 10,3 km/h (2 Bft)
22.10.2013 02:30 13,7 C 12,8 C 95 % 1010,6 hPa 0,0 l/m 0 min 0 min 0,0 UV-I 0 W/m 7,7 km/h (2 Bft)
22.10.2013 02:32 13,8 C 12,8 C 95 % 1010,6 hPa 0,0 l/m 0 min 0 min 0,0 UV-I 0 W/m 5,1 km/h (1 Bft)
22.10.2013 02:34 13,8 C 12,8 C 95 % 1010,5 hPa 0,0 l/m 0 min 0 min 0,0 UV-I 0 W/m 7,7 km/h (2 Bft)
22.10.2013 02:36 13,8 C 12,8 C 95 % 1010,6 hPa 0,0 l/m 0 min 0 min 0,0 UV-I 0 W/m 12,9 km/h (3 Bft)
22.10.2013 02:38 13,8 C 12,8 C 95 % 1010,5 hPa 0,0 l/m 0 min 0 min 0,0 UV-I 0 W/m 0,0 km/h (0 Bft)
22.10.2013 02:40 13,8 C 12,8 C 95 % 1010,6 hPa 0,0 l/m 0 min 0 min 0,0 UV-I 0 W/m 7,7 km/h (2 Bft)
22.10.2013 02:42 13,8 C 12,8 C 95 % 1010,5 hPa 0,0 l/m 0 min 0 min 0,0 UV-I 0 W/m 7,7 km/h (2 Bft)
22.10.2013 02:44 13,8 C 12,8 C 95 % 1010,5 hPa 0,0 l/m 0 min 0 min 0,0 UV-I 0 W/m 2,6 km/h (1 Bft)
22.10.2013 02:46 13,8 C 12,8 C 95 % 1010,5 hPa 0,0 l/m 0 min 0 min 0,0 UV-I 0 W/m 5,1 km/h (1 Bft)
22.10.2013 02:48 13,9 C 12,8 C 95 % 1010,6 hPa 0,0 l/m 0 min 0 min 0,0 UV-I 0 W/m 10,3 km/h (2 Bft)
22.10.2013 02:50 13,9 C 12,8 C 95 % 1010,4 hPa 0,0 l/m 0 min 0 min 0,0 UV-I 0 W/m 12,9 km/h (3 Bft)
22.10.2013 02:52 13,9 C 12,8 C 95 % 1010,5 hPa 0,0 l/m 0 min 0 min 0,0 UV-I 0 W/m 5,1 km/h (1 Bft)
22.10.2013 02:54 13,9 C 12,8 C 94 % 1010,5 hPa 0,0 l/m 0 min 0 min 0,0 UV-I 0 W/m 7,7 km/h (2 Bft)
22.10.2013 02:56 13,9 C 12,8 C 94 % 1010,4 hPa 0,0 l/m 0 min 2 min 0,0 UV-I 0 W/m 7,7 km/h (2 Bft)
22.10.2013 02:58 13,9 C 12,8 C 94 % 1010,5 hPa 0,0 l/m 0 min 2 min 0,0 UV-I 0 W/m 0,0 km/h (0 Bft)
22.10.2013 03:00 13,9 C 12,8 C 94 % 1010,4 hPa 0,0 l/m 0 min 2 min 0,0 UV-I 0 W/m 2,6 km/h (1 Bft)
22.10.2013 03:02 13,9 C 12,8 C 94 % 1010,4 hPa 0,0 l/m 0 min 0 min 0,0 UV-I 0 W/m 7,7 km/h (2 Bft)
22.10.2013 03:06 14,0 C 12,8 C 94 % 1010,4 hPa 0,0 l/m 0 min 0 min 0,0 UV-I 0 W/m 10,3 km/h (2 Bft)
22.10.2013 03:08 14,0 C 12,8 C 94 % 1010,4 hPa 0,0 l/m 0 min 0 min 0,0 UV-I 0 W/m 5,1 km/h (1 Bft)
22.10.2013 03:10 14,0 C 12,8 C 94 % 1010,3 hPa 0,0 l/m 0 min 0 min 0,0 UV-I 0 W/m 10,3 km/h (2 Bft)
22.10.2013 03:12 14,1 C 12,8 C 94 % 1010,4 hPa 0,0 l/m 0 min 0 min 0,0 UV-I 0 W/m 7,7 km/h (2 Bft)
22.10.2013 03:14 14,1 C 12,8 C 94 % 1010,3 hPa 0,0 l/m 0 min 0 min 0,0 UV-I 0 W/m 7,7 km/h (2 Bft)
22.10.2013 03:16 14,1 C 12,8 C 94 % 1010,3 hPa 0,0 l/m 0 min 0 min 0,0 UV-I 0 W/m 0,0 km/h (0 Bft)
22.10.2013 03:18 14,1 C 12,8 C 94 % 1010,2 hPa 0,0 l/m 0 min 0 min 0,0 UV-I 0 W/m 7,7 km/h (2 Bft)
22.10.2013 03:20 14,1 C 12,8 C 94 % 1010,2 hPa 0,0 l/m 0 min 0 min 0,0 UV-I 0 W/m 5,1 km/h (1 Bft)
22.10.2013 03:22 14,1 C 12,8 C 94 % 1010,3 hPa 0,0 l/m 0 min 0 min 0,0 UV-I 0 W/m 12,9 km/h (3 Bft)
22.10.2013 03:24 14,2 C 12,8 C 94 % 1010,2 hPa 0,0 l/m 0 min 0 min 0,0 UV-I 0 W/m 12,9 km/h (3 Bft)
22.10.2013 03:26 14,2 C 12,8 C 94 % 1010,2 hPa 0,0 l/m 0 min 0 min 0,0 UV-I 0 W/m 10,3 km/h (2 Bft)
22.10.2013 03:28 14,2 C 12,8 C 94 % 1010,1 hPa 0,0 l/m 0 min 0 min 0,0 UV-I 0 W/m 15,4 km/h (3 Bft)
22.10.2013 03:30 14,2 C 12,8 C 94 % 1010,1 hPa 0,0 l/m 0 min 0 min 0,0 UV-I 0 W/m 10,3 km/h (2 Bft)
22.10.2013 03:32 14,2 C 12,8 C 94 % 1010,1 hPa 0,0 l/m 0 min 0 min 0,0 UV-I 0 W/m 12,9 km/h (3 Bft)
22.10.2013 03:34 14,2 C 12,8 C 94 % 1010,1 hPa 0,0 l/m 0 min 0 min 0,0 UV-I 0 W/m 7,7 km/h (2 Bft)
22.10.2013 03:36 14,2 C 12,8 C 94 % 1010,1 hPa 0,0 l/m 0 min 0 min 0,0 UV-I 0 W/m 10,3 km/h (2 Bft)
22.10.2013 03:38 14,2 C 12,8 C 94 % 1010,1 hPa 0,0 l/m 0 min 0 min 0,0 UV-I 0 W/m 12,9 km/h (3 Bft)
22.10.2013 03:40 14,2 C 12,8 C 94 % 1010,0 hPa 0,0 l/m 0 min 0 min 0,0 UV-I 0 W/m 12,9 km/h (3 Bft)
22.10.2013 03:42 14,2 C 12,8 C 94 % 1010,0 hPa 0,0 l/m 0 min 2 min 0,0 UV-I 0 W/m 10,3 km/h (2 Bft)
22.10.2013 03:44 14,2 C 12,8 C 94 % 1009,9 hPa 0,0 l/m 0 min 0 min 0,0 UV-I 0 W/m 12,9 km/h (3 Bft)
22.10.2013 03:46 14,2 C 12,8 C 94 % 1009,9 hPa 0,0 l/m 0 min 0 min 0,0 UV-I 0 W/m 15,4 km/h (3 Bft)
22.10.2013 03:48 14,2 C 12,8 C 94 % 1009,9 hPa 0,0 l/m 0 min 0 min 0,0 UV-I 0 W/m 5,1 km/h (1 Bft)
22.10.2013 03:50 14,2 C 12,8 C 94 % 1009,9 hPa 0,0 l/m 0 min 0 min 0,0 UV-I 0 W/m 7,7 km/h (2 Bft)
22.10.2013 03:52 14,2 C 12,8 C 94 % 1009,8 hPa 0,0 l/m 0 min 0 min 0,0 UV-I 0 W/m 12,9 km/h (3 Bft)
22.10.2013 03:54 14,2 C 12,8 C 94 % 1009,8 hPa 0,0 l/m 0 min 0 min 0,0 UV-I 0 W/m 7,7 km/h (2 Bft)
22.10.2013 03:56 14,2 C 12,8 C 94 % 1009,9 hPa 0,0 l/m 0 min 0 min 0,0 UV-I 0 W/m 7,7 km/h (2 Bft)
22.10.2013 03:58 14,2 C 12,8 C 94 % 1009,8 hPa 0,0 l/m 0 min 0 min 0,0 UV-I 0 W/m 7,7 km/h (2 Bft)
22.10.2013 04:00 14,2 C 12,8 C 94 % 1009,7 hPa 0,0 l/m 0 min 0 min 0,0 UV-I 0 W/m 7,7 km/h (2 Bft)
22.10.2013 04:05 14,2 C 12,8 C 94 % 1009,5 hPa 0,0 l/m 0 min 0 min 0,0 UV-I 0 W/m 0,0 km/h (0 Bft)
22.10.2013 04:06 14,2 C 12,8 C 94 % 1009,5 hPa 0,0 l/m 0 min 0 min 0,0 UV-I 0 W/m 0,0 km/h (0 Bft)
22.10.2013 04:08 14,2 C 12,8 C 94 % 1009,5 hPa 0,0 l/m 0 min 0 min 0,0 UV-I 0 W/m 0,0 km/h (0 Bft)
22.10.2013 04:10 14,2 C 12,8 C 94 % 1009,5 hPa 0,0 l/m 0 min 0 min 0,0 UV-I 0 W/m 5,1 km/h (1 Bft)
22.10.2013 04:12 14,2 C 12,8 C 94 % 1009,6 hPa 0,0 l/m 0 min 0 min 0,0 UV-I 0 W/m 7,7 km/h (2 Bft)
22.10.2013 04:14 14,2 C 12,8 C 94 % 1009,5 hPa 0,0 l/m 0 min 0 min 0,0 UV-I 0 W/m 7,7 km/h (2 Bft)
22.10.2013 04:16 14,2 C 12,8 C 94 % 1009,4 hPa 0,0 l/m 0 min 0 min 0,0 UV-I 0 W/m 10,3 km/h (2 Bft)
22.10.2013 04:18 14,2 C 12,8 C 94 % 1009,5 hPa 0,0 l/m 0 min 0 min 0,0 UV-I 0 W/m 10,3 km/h (2 Bft)
22.10.2013 04:20 14,2 C 12,2 C 94 % 1009,4 hPa 0,0 l/m 0 min 0 min 0,0 UV-I 0 W/m 10,3 km/h (2 Bft)
22.10.2013 04:22 14,2 C 12,2 C 94 % 1009,4 hPa 0,0 l/m 0 min 0 min 0,0 UV-I 0 W/m 0,0 km/h (0 Bft)
22.10.2013 04:24 14,2 C 12,2 C 94 % 1009,5 hPa 0,0 l/m 0 min 0 min 0,0 UV-I 0 W/m 7,7 km/h (2 Bft)
22.10.2013 04:26 14,2 C 12,2 C 94 % 1009,4 hPa 0,0 l/m 0 min 0 min 0,0 UV-I 0 W/m 10,3 km/h (2 Bft)
22.10.2013 04:28 14,2 C 12,2 C 94 % 1009,4 hPa 0,0 l/m 0 min 0 min 0,0 UV-I 0 W/m 2,6 km/h (1 Bft)
22.10.2013 04:30 14,2 C 12,2 C 94 % 1009,4 hPa 0,0 l/m 0 min 0 min 0,0 UV-I 0 W/m 5,1 km/h (1 Bft)
22.10.2013 04:32 14,1 C 12,2 C 94 % 1009,4 hPa 0,0 l/m 0 min 0 min 0,0 UV-I 0 W/m 5,1 km/h (1 Bft)
22.10.2013 04:34 14,1 C 12,2 C 94 % 1009,3 hPa 0,0 l/m 0 min 0 min 0,0 UV-I 0 W/m 7,7 km/h (2 Bft)
22.10.2013 04:36 14,1 C 12,2 C 94 % 1009,4 hPa 0,0 l/m 0 min 0 min 0,0 UV-I 0 W/m 0,0 km/h (0 Bft)
22.10.2013 04:38 14,1 C 12,2 C 94 % 1009,4 hPa 0,0 l/m 0 min 0 min 0,0 UV-I 0 W/m 10,3 km/h (2 Bft)
22.10.2013 04:40 14,0 C 12,2 C 94 % 1009,4 hPa 0,0 l/m 0 min 0 min 0,0 UV-I 0 W/m 10,3 km/h (2 Bft)
22.10.2013 04:42 14,0 C 12,2 C 94 % 1009,4 hPa 0,0 l/m 0 min 0 min 0,0 UV-I 0 W/m 7,7 km/h (2 Bft)
22.10.2013 04:44 14,0 C 12,2 C 94 % 1009,4 hPa 0,0 l/m 0 min 0 min 0,0 UV-I 0 W/m 7,7 km/h (2 Bft)
22.10.2013 04:46 14,0 C 12,2 C 94 % 1009,3 hPa 0,0 l/m 0 min 0 min 0,0 UV-I 0 W/m 7,7 km/h (2 Bft)
22.10.2013 04:48 13,9 C 12,2 C 94 % 1009,3 hPa 0,0 l/m 0 min 0 min 0,0 UV-I 0 W/m 18,0 km/h (3 Bft)
22.10.2013 04:50 13,9 C 12,2 C 94 % 1009,3 hPa 0,0 l/m 0 min 0 min 0,0 UV-I 0 W/m 10,3 km/h (2 Bft)
22.10.2013 04:52 13,9 C 12,2 C 94 % 1009,3 hPa 0,0 l/m 0 min 0 min 0,0 UV-I 0 W/m 5,1 km/h (1 Bft)
22.10.2013 04:54 13,9 C 12,2 C 94 % 1009,4 hPa 0,0 l/m 0 min 0 min 0,0 UV-I 0 W/m 2,6 km/h (1 Bft)
22.10.2013 04:56 13,9 C 12,2 C 94 % 1009,3 hPa 0,0 l/m 0 min 0 min 0,0 UV-I 0 W/m 5,1 km/h (1 Bft)
22.10.2013 04:58 13,9 C 12,2 C 95 % 1009,3 hPa 0,0 l/m 0 min 0 min 0,0 UV-I 0 W/m 7,7 km/h (2 Bft)
22.10.2013 05:00 13,9 C 12,2 C 95 % 1009,3 hPa 0,0 l/m 0 min 0 min 0,0 UV-I 0 W/m 5,1 km/h (1 Bft)
22.10.2013 05:02 13,9 C 12,2 C 95 % 1009,3 hPa 0,0 l/m 0 min 0 min 0,0 UV-I 0 W/m 0,0 km/h (0 Bft)
22.10.2013 05:06 13,9 C 12,2 C 95 % 1009,3 hPa 0,0 l/m 0 min 0 min 0,0 UV-I 0 W/m 5,1 km/h (1 Bft)
22.10.2013 05:08 13,9 C 12,2 C 95 % 1009,2 hPa 0,0 l/m 0 min 0 min 0,0 UV-I 0 W/m 15,4 km/h (3 Bft)
22.10.2013 05:10 13,9 C 12,8 C 95 % 1009,2 hPa 0,0 l/m 0 min 0 min 0,0 UV-I 0 W/m 15,4 km/h (3 Bft)
22.10.2013 05:12 13,9 C 12,8 C 95 % 1009,2 hPa 0,0 l/m 0 min 0 min 0,0 UV-I 0 W/m 12,9 km/h (3 Bft)
22.10.2013 05:14 13,9 C 12,8 C 95 % 1009,2 hPa 0,0 l/m 0 min 0 min 0,0 UV-I 0 W/m 10,3 km/h (2 Bft)
22.10.2013 05:16 14,0 C 12,8 C 95 % 1009,3 hPa 0,0 l/m 0 min 0 min 0,0 UV-I 0 W/m 10,3 km/h (2 Bft)
22.10.2013 05:18 14,0 C 12,8 C 95 % 1009,3 hPa 0,0 l/m 0 min 0 min 0,0 UV-I 0 W/m 10,3 km/h (2 Bft)
22.10.2013 05:20 14,1 C 12,8 C 95 % 1009,3 hPa 0,0 l/m 0 min 0 min 0,0 UV-I 0 W/m 10,3 km/h (2 Bft)
22.10.2013 05:22 14,1 C 12,8 C 95 % 1009,2 hPa 0,0 l/m 0 min 0 min 0,0 UV-I 0 W/m 18,0 km/h (3 Bft)
22.10.2013 05:24 14,1 C 12,8 C 95 % 1009,2 hPa 0,0 l/m 0 min 0 min 0,0 UV-I 0 W/m 10,3 km/h (2 Bft)
22.10.2013 05:26 14,2 C 12,8 C 95 % 1009,2 hPa 0,0 l/m 0 min 0 min 0,0 UV-I 0 W/m 12,9 km/h (3 Bft)
22.10.2013 05:28 14,2 C 12,8 C 96 % 1009,2 hPa 0,0 l/m 0 min 0 min 0,0 UV-I 0 W/m 15,4 km/h (3 Bft)
22.10.2013 05:30 14,2 C 12,8 C 96 % 1009,3 hPa 0,0 l/m 0 min 0 min 0,0 UV-I 0 W/m 7,7 km/h (2 Bft)
22.10.2013 05:32 14,2 C 12,8 C 96 % 1009,1 hPa 0,0 l/m 0 min 0 min 0,0 UV-I 0 W/m 12,9 km/h (3 Bft)
22.10.2013 05:34 14,2 C 12,8 C 96 % 1009,1 hPa 0,0 l/m 0 min 0 min 0,0 UV-I 0 W/m 12,9 km/h (3 Bft)
22.10.2013 05:36 14,2 C 12,8 C 96 % 1009,1 hPa 0,0 l/m 0 min 0 min 0,0 UV-I 0 W/m 18,0 km/h (3 Bft)
22.10.2013 05:38 14,2 C 12,8 C 96 % 1009,0 hPa 0,0 l/m 0 min 0 min 0,0 UV-I 0 W/m 12,9 km/h (3 Bft)
22.10.2013 05:40 14,2 C 12,8 C 96 % 1009,1 hPa 0,0 l/m 0 min 0 min 0,0 UV-I 0 W/m 0,0 km/h (0 Bft)
22.10.2013 05:42 14,2 C 12,8 C 96 % 1009,0 hPa 0,0 l/m 0 min 0 min 0,0 UV-I 0 W/m 0,0 km/h (0 Bft)
22.10.2013 05:44 14,2 C 12,8 C 96 % 1008,9 hPa 0,0 l/m 0 min 0 min 0,0 UV-I 0 W/m 10,3 km/h (2 Bft)
22.10.2013 05:46 14,2 C 12,8 C 96 % 1008,8 hPa 0,0 l/m 0 min 0 min 0,0 UV-I 0 W/m 12,9 km/h (3 Bft)
22.10.2013 05:48 14,2 C 12,8 C 96 % 1008,8 hPa 0,0 l/m 0 min 0 min 0,0 UV-I 0 W/m 20,6 km/h (4 Bft)
22.10.2013 05:50 14,2 C 12,8 C 96 % 1008,8 hPa 0,0 l/m 0 min 0 min 0,0 UV-I 0 W/m 12,9 km/h (3 Bft)
22.10.2013 05:52 14,2 C 12,8 C 96 % 1008,7 hPa 0,0 l/m 0 min 0 min 0,0 UV-I 0 W/m 12,9 km/h (3 Bft)
22.10.2013 05:54 14,2 C 12,8 C 96 % 1008,7 hPa 0,0 l/m 0 min 0 min 0,0 UV-I 0 W/m 10,3 km/h (2 Bft)
22.10.2013 05:56 14,2 C 12,8 C 96 % 1008,7 hPa 0,0 l/m 0 min 0 min 0,0 UV-I 0 W/m 15,4 km/h (3 Bft)
22.10.2013 05:58 14,2 C 12,8 C 96 % 1008,7 hPa 0,0 l/m 0 min 0 min 0,0 UV-I 0 W/m 12,9 km/h (3 Bft)
22.10.2013 06:00 14,2 C 12,8 C 96 % 1008,7 hPa 0,0 l/m 0 min 0 min 0,0 UV-I 0 W/m 20,6 km/h (4 Bft)
22.10.2013 06:02 14,2 C 12,8 C 96 % 1008,6 hPa 0,0 l/m 0 min 0 min 0,0 UV-I 0 W/m 10,3 km/h (2 Bft)
22.10.2013 06:06 14,2 C 12,8 C 96 % 1008,6 hPa 0,0 l/m 0 min 0 min 0,0 UV-I 0 W/m 20,6 km/h (4 Bft)
22.10.2013 06:08 14,2 C 12,8 C 96 % 1008,6 hPa 0,0 l/m 0 min 0 min 0,0 UV-I 0 W/m 15,4 km/h (3 Bft)
22.10.2013 06:10 14,2 C 12,8 C 96 % 1008,5 hPa 0,0 l/m 0 min 0 min 0,0 UV-I 0 W/m 15,4 km/h (3 Bft)
22.10.2013 06:12 14,2 C 12,8 C 96 % 1008,5 hPa 0,0 l/m 0 min 0 min 0,0 UV-I 0 W/m 7,7 km/h (2 Bft)
22.10.2013 06:14 14,2 C 12,8 C 96 % 1008,5 hPa 0,0 l/m 0 min 0 min 0,0 UV-I 0 W/m 12,9 km/h (3 Bft)
22.10.2013 06:16 14,2 C 12,8 C 96 % 1008,5 hPa 0,0 l/m 0 min 0 min 0,0 UV-I 0 W/m 7,7 km/h (2 Bft)
22.10.2013 06:18 14,2 C 12,8 C 96 % 1008,4 hPa 0,0 l/m 0 min 0 min 0,0 UV-I 0 W/m 18,0 km/h (3 Bft)
22.10.2013 06:20 14,2 C 12,8 C 96 % 1008,4 hPa 0,0 l/m 0 min 0 min 0,0 UV-I 0 W/m 12,9 km/h (3 Bft)
22.10.2013 06:22 14,2 C 12,8 C 96 % 1008,4 hPa 0,0 l/m 0 min 0 min 0,0 UV-I 0 W/m 12,9 km/h (3 Bft)
22.10.2013 06:24 14,2 C 12,8 C 96 % 1008,4 hPa 0,0 l/m 0 min 0 min 0,0 UV-I 0 W/m 7,7 km/h (2 Bft)
22.10.2013 06:26 14,2 C 12,8 C 96 % 1008,3 hPa 0,0 l/m 0 min 0 min 0,0 UV-I 0 W/m 12,9 km/h (3 Bft)
22.10.2013 06:28 14,2 C 12,8 C 96 % 1008,4 hPa 0,0 l/m 0 min 0 min 0,0 UV-I 0 W/m 15,4 km/h (3 Bft)
22.10.2013 06:30 14,2 C 12,8 C 96 % 1008,3 hPa 0,0 l/m 0 min 0 min 0,0 UV-I 0 W/m 18,0 km/h (3 Bft)
22.10.2013 06:32 14,2 C 12,8 C 96 % 1008,3 hPa 0,0 l/m 0 min 0 min 0,0 UV-I 0 W/m 7,7 km/h (2 Bft)
22.10.2013 06:34 14,2 C 12,8 C 96 % 1008,3 hPa 0,0 l/m 0 min 0 min 0,0 UV-I 0 W/m 15,4 km/h (3 Bft)
22.10.2013 06:36 14,2 C 12,8 C 96 % 1008,3 hPa 0,0 l/m 0 min 0 min 0,0 UV-I 0 W/m 12,9 km/h (3 Bft)
22.10.2013 06:38 14,2 C 12,2 C 96 % 1008,3 hPa 0,0 l/m 0 min 0 min 0,0 UV-I 0 W/m 7,7 km/h (2 Bft)
22.10.2013 06:40 14,2 C 12,8 C 96 % 1008,3 hPa 0,0 l/m 0 min 0 min 0,0 UV-I 0 W/m 15,4 km/h (3 Bft)
22.10.2013 06:42 14,2 C 12,8 C 96 % 1008,2 hPa 0,0 l/m 0 min 0 min 0,0 UV-I 0 W/m 18,0 km/h (3 Bft)
22.10.2013 06:44 14,2 C 12,8 C 96 % 1008,3 hPa 0,0 l/m 0 min 0 min 0,0 UV-I 0 W/m 10,3 km/h (2 Bft)
22.10.2013 06:46 14,2 C 12,8 C 96 % 1008,2 hPa 0,0 l/m 0 min 0 min 0,0 UV-I 0 W/m 15,4 km/h (3 Bft)
22.10.2013 06:48 14,2 C 12,8 C 96 % 1008,3 hPa 0,0 l/m 0 min 0 min 0,0 UV-I 0 W/m 12,9 km/h (3 Bft)
22.10.2013 06:50 14,2 C 12,8 C 96 % 1008,2 hPa 0,0 l/m 0 min 0 min 0,0 UV-I 0 W/m 12,9 km/h (3 Bft)
22.10.2013 06:52 14,2 C 12,8 C 96 % 1008,2 hPa 0,0 l/m 0 min 0 min 0,0 UV-I 0 W/m 12,9 km/h (3 Bft)
22.10.2013 06:54 14,2 C 12,8 C 96 % 1008,2 hPa 0,0 l/m 0 min 0 min 0,0 UV-I 0 W/m 12,9 km/h (3 Bft)
22.10.2013 06:56 14,2 C 12,8 C 96 % 1008,1 hPa 0,0 l/m 0 min 0 min 0,0 UV-I 0 W/m 12,9 km/h (3 Bft)
22.10.2013 06:58 14,2 C 12,8 C 96 % 1008,1 hPa 0,0 l/m 0 min 0 min 0,0 UV-I 0 W/m 20,6 km/h (4 Bft)
22.10.2013 07:00 14,2 C 12,8 C 96 % 1008,1 hPa 0,0 l/m 0 min 0 min 0,0 UV-I 0 W/m 12,9 km/h (3 Bft)
22.10.2013 07:02 14,2 C 12,8 C 96 % 1008,1 hPa 0,0 l/m 0 min 0 min 0,0 UV-I 0 W/m 12,9 km/h (3 Bft)
22.10.2013 07:06 14,2 C 12,8 C 96 % 1008,0 hPa 0,0 l/m 0 min 0 min 0,0 UV-I 0 W/m 23,2 km/h (4 Bft)
22.10.2013 07:08 14,2 C 12,8 C 96 % 1008,0 hPa 0,0 l/m 0 min 0 min 0,0 UV-I 0 W/m 18,0 km/h (3 Bft)
22.10.2013 07:10 14,2 C 12,8 C 96 % 1007,9 hPa 0,0 l/m 0 min 0 min 0,0 UV-I 0 W/m 12,9 km/h (3 Bft)
22.10.2013 07:12 14,2 C 12,8 C 96 % 1007,9 hPa 0,0 l/m 0 min 0 min 0,0 UV-I 0 W/m 10,3 km/h (2 Bft)
22.10.2013 07:14 14,2 C 12,8 C 96 % 1007,9 hPa 0,0 l/m 0 min 0 min 0,0 UV-I 0 W/m 10,3 km/h (2 Bft)
22.10.2013 07:16 14,2 C 12,8 C 96 % 1007,9 hPa 0,0 l/m 0 min 0 min 0,0 UV-I 0 W/m 7,7 km/h (2 Bft)
22.10.2013 07:18 14,2 C 12,8 C 96 % 1007,8 hPa 0,0 l/m 0 min 0 min 0,0 UV-I 0 W/m 18,0 km/h (3 Bft)
22.10.2013 07:20 14,2 C 12,8 C 96 % 1007,8 hPa 0,0 l/m 0 min 0 min 0,0 UV-I 0 W/m 10,3 km/h (2 Bft)
22.10.2013 07:22 14,2 C 12,8 C 96 % 1007,8 hPa 0,0 l/m 0 min 0 min 0,0 UV-I 0 W/m 15,4 km/h (3 Bft)
22.10.2013 07:24 14,2 C 12,8 C 96 % 1007,9 hPa 0,0 l/m 0 min 0 min 0,0 UV-I 0 W/m 10,3 km/h (2 Bft)
22.10.2013 07:26 14,2 C 12,8 C 96 % 1007,8 hPa 0,0 l/m 0 min 0 min 0,0 UV-I 0 W/m 10,3 km/h (2 Bft)
22.10.2013 07:28 14,2 C 12,8 C 96 % 1007,8 hPa 0,0 l/m 0 min 0 min 0,0 UV-I 0 W/m 12,9 km/h (3 Bft)
22.10.2013 07:30 14,2 C 12,8 C 96 % 1007,8 hPa 0,0 l/m 0 min 0 min 0,0 UV-I 0 W/m 15,4 km/h (3 Bft)
22.10.2013 07:32 14,2 C 12,8 C 96 % 1007,8 hPa 0,0 l/m 0 min 0 min 0,0 UV-I 0 W/m 23,2 km/h (4 Bft)
22.10.2013 07:34 14,2 C 12,8 C 96 % 1007,7 hPa 0,0 l/m 0 min 0 min 0,0 UV-I 0 W/m 12,9 km/h (3 Bft)
22.10.2013 07:36 14,2 C 12,8 C 96 % 1007,8 hPa 0,0 l/m 0 min 0 min 0,0 UV-I 0 W/m 15,4 km/h (3 Bft)
22.10.2013 07:38 14,2 C 12,8 C 96 % 1007,8 hPa 0,0 l/m 0 min 0 min 0,0 UV-I 0 W/m 12,9 km/h (3 Bft)
22.10.2013 07:40 14,2 C 12,8 C 96 % 1007,8 hPa 0,0 l/m 0 min 0 min 0,0 UV-I 0 W/m 15,4 km/h (3 Bft)
22.10.2013 07:42 14,2 C 12,8 C 96 % 1007,8 hPa 0,0 l/m 0 min 0 min 0,0 UV-I 0 W/m 15,4 km/h (3 Bft)
22.10.2013 07:44 14,2 C 12,8 C 96 % 1007,8 hPa 0,0 l/m 0 min 0 min 0,0 UV-I 0 W/m 18,0 km/h (3 Bft)
22.10.2013 07:46 14,2 C 12,8 C 96 % 1007,8 hPa 0,0 l/m 0 min 0 min 0,0 UV-I 0 W/m 15,4 km/h (3 Bft)
22.10.2013 07:48 14,2 C 12,8 C 96 % 1007,8 hPa 0,0 l/m 0 min 0 min 0,0 UV-I 0 W/m 12,9 km/h (3 Bft)
22.10.2013 07:50 14,2 C 12,8 C 96 % 1007,8 hPa 0,0 l/m 0 min 0 min 0,0 UV-I 0 W/m 23,2 km/h (4 Bft)
22.10.2013 07:52 14,2 C 12,8 C 96 % 1007,9 hPa 0,0 l/m 0 min 0 min 0,0 UV-I 0 W/m 12,9 km/h (3 Bft)
22.10.2013 07:54 14,2 C 12,8 C 96 % 1007,9 hPa 0,0 l/m 0 min 0 min 0,0 UV-I 0 W/m 12,9 km/h (3 Bft)
22.10.2013 07:56 14,2 C 12,8 C 96 % 1007,9 hPa 0,0 l/m 0 min 0 min 0,0 UV-I 0 W/m 12,9 km/h (3 Bft)
22.10.2013 07:58 14,2 C 12,8 C 96 % 1007,9 hPa 0,0 l/m 0 min 0 min 0,0 UV-I 0 W/m 12,9 km/h (3 Bft)
22.10.2013 08:00 14,2 C 12,8 C 96 % 1007,9 hPa 0,0 l/m 0 min 0 min 0,0 UV-I 0 W/m 15,4 km/h (3 Bft)
22.10.2013 08:02 14,2 C 12,8 C 96 % 1007,8 hPa 0,0 l/m 0 min 0 min 0,0 UV-I 0 W/m 18,0 km/h (3 Bft)
22.10.2013 08:06 14,3 C 12,8 C 96 % 1007,8 hPa 0,0 l/m 0 min 0 min 0,0 UV-I 0 W/m 10,3 km/h (2 Bft)
22.10.2013 08:08 14,3 C 12,8 C 96 % 1007,8 hPa 0,0 l/m 0 min 0 min 0,0 UV-I 0 W/m 12,9 km/h (3 Bft)
22.10.2013 08:10 14,3 C 12,8 C 96 % 1007,8 hPa 0,0 l/m 0 min 0 min 0,0 UV-I 0 W/m 18,0 km/h (3 Bft)
22.10.2013 08:12 14,3 C 12,8 C 97 % 1007,8 hPa 0,0 l/m 0 min 0 min 0,0 UV-I 5 W/m 10,3 km/h (2 Bft)
22.10.2013 08:14 14,3 C 12,8 C 97 % 1007,8 hPa 0,0 l/m 0 min 0 min 0,0 UV-I 5 W/m 20,6 km/h (4 Bft)
22.10.2013 08:16 14,3 C 12,8 C 97 % 1007,9 hPa 0,0 l/m 0 min 0 min 0,0 UV-I 7 W/m 15,4 km/h (3 Bft)
22.10.2013 08:18 14,3 C 12,8 C 97 % 1007,8 hPa 0,0 l/m 0 min 0 min 0,0 UV-I 7 W/m 18,0 km/h (3 Bft)
22.10.2013 08:20 14,3 C 12,8 C 97 % 1007,8 hPa 0,0 l/m 0 min 0 min 0,0 UV-I 9 W/m 20,6 km/h (4 Bft)
22.10.2013 08:22 14,3 C 12,8 C 97 % 1007,8 hPa 0,0 l/m 0 min 0 min 0,0 UV-I 11 W/m 10,3 km/h (2 Bft)
22.10.2013 08:24 14,3 C 12,8 C 97 % 1007,8 hPa 0,0 l/m 0 min 0 min 0,0 UV-I 11 W/m 10,3 km/h (2 Bft)
22.10.2013 08:26 14,3 C 12,8 C 97 % 1007,8 hPa 0,0 l/m 0 min 0 min 0,0 UV-I 12 W/m 12,9 km/h (3 Bft)
22.10.2013 08:28 14,3 C 12,8 C 97 % 1007,8 hPa 0,0 l/m 0 min 0 min 0,0 UV-I 12 W/m 18,0 km/h (3 Bft)
22.10.2013 08:30 14,3 C 12,8 C 97 % 1007,8 hPa 0,0 l/m 0 min 0 min 0,0 UV-I 14 W/m 12,9 km/h (3 Bft)
22.10.2013 08:32 14,3 C 12,8 C 97 % 1007,8 hPa 0,0 l/m 0 min 0 min 0,0 UV-I 14 W/m 18,0 km/h (3 Bft)
22.10.2013 08:34 14,3 C 12,8 C 97 % 1007,9 hPa 0,0 l/m 0 min 0 min 0,0 UV-I 14 W/m 23,2 km/h (4 Bft)
22.10.2013 08:36 14,3 C 12,8 C 97 % 1007,8 hPa 0,0 l/m 0 min 0 min 0,0 UV-I 16 W/m 23,2 km/h (4 Bft)
22.10.2013 08:38 14,3 C 12,8 C 97 % 1007,8 hPa 0,0 l/m 0 min 0 min 0,0 UV-I 18 W/m 23,2 km/h (4 Bft)
22.10.2013 08:40 14,4 C 12,8 C 97 % 1007,8 hPa 0,0 l/m 0 min 0 min 0,0 UV-I 18 W/m 18,0 km/h (3 Bft)
22.10.2013 08:42 14,3 C 12,8 C 97 % 1007,8 hPa 0,0 l/m 0 min 0 min 0,0 UV-I 19 W/m 18,0 km/h (3 Bft)
22.10.2013 08:44 14,4 C 12,8 C 97 % 1007,8 hPa 0,0 l/m 0 min 0 min 0,0 UV-I 19 W/m 15,4 km/h (3 Bft)
22.10.2013 08:46 14,4 C 12,8 C 97 % 1007,7 hPa 0,0 l/m 0 min 0 min 0,0 UV-I 19 W/m 12,9 km/h (3 Bft)
22.10.2013 08:48 14,4 C 12,8 C 97 % 1007,7 hPa 0,0 l/m 0 min 0 min 0,0 UV-I 19 W/m 10,3 km/h (2 Bft)
22.10.2013 08:50 14,3 C 12,8 C 97 % 1007,8 hPa 0,0 l/m 0 min 0 min 0,0 UV-I 21 W/m 15,4 km/h (3 Bft)
22.10.2013 08:52 14,4 C 12,8 C 97 % 1007,8 hPa 0,0 l/m 0 min 0 min 0,0 UV-I 21 W/m 23,2 km/h (4 Bft)
22.10.2013 08:54 14,4 C 12,8 C 97 % 1007,9 hPa 0,0 l/m 0 min 0 min 0,0 UV-I 21 W/m 18,0 km/h (3 Bft)
22.10.2013 08:56 14,4 C 12,8 C 97 % 1007,9 hPa 0,0 l/m 0 min 0 min 0,0 UV-I 21 W/m 15,4 km/h (3 Bft)
22.10.2013 08:58 14,4 C 12,8 C 97 % 1007,8 hPa 0,0 l/m 0 min 0 min 0,0 UV-I 23 W/m 18,0 km/h (3 Bft)
22.10.2013 09:00 14,4 C 12,8 C 97 % 1007,8 hPa 0,0 l/m 0 min 0 min 0,0 UV-I 23 W/m 12,9 km/h (3 Bft)
22.10.2013 09:02 14,4 C 12,8 C 97 % 1007,8 hPa 0,0 l/m 0 min 0 min 0,0 UV-I 23 W/m 20,6 km/h (4 Bft)
22.10.2013 09:06 14,4 C 12,8 C 97 % 1007,8 hPa 0,0 l/m 0 min 0 min 0,0 UV-I 26 W/m 20,6 km/h (4 Bft)
22.10.2013 09:08 14,4 C 12,8 C 97 % 1007,8 hPa 0,0 l/m 0 min 0 min 0,0 UV-I 26 W/m 15,4 km/h (3 Bft)
22.10.2013 09:10 14,4 C 12,8 C 97 % 1007,8 hPa 0,0 l/m 0 min 0 min 0,0 UV-I 26 W/m 12,9 km/h (3 Bft)
22.10.2013 09:12 14,4 C 12,8 C 96 % 1007,7 hPa 0,0 l/m 0 min 0 min 0,0 UV-I 28 W/m 18,0 km/h (3 Bft)
22.10.2013 09:14 14,4 C 13,3 C 96 % 1007,7 hPa 0,0 l/m 0 min 0 min 0,0 UV-I 28 W/m 15,4 km/h (3 Bft)
22.10.2013 09:16 14,5 C 13,3 C 96 % 1007,7 hPa 0,0 l/m 0 min 0 min 0,0 UV-I 28 W/m 5,1 km/h (1 Bft)
22.10.2013 09:18 14,5 C 13,3 C 96 % 1007,7 hPa 0,0 l/m 0 min 2 min 0,0 UV-I 30 W/m 12,9 km/h (3 Bft)
22.10.2013 09:20 14,5 C 13,3 C 96 % 1007,7 hPa 0,0 l/m 0 min 0 min 0,0 UV-I 32 W/m 18,0 km/h (3 Bft)
22.10.2013 09:22 14,5 C 13,3 C 96 % 1007,7 hPa 0,0 l/m 0 min 0 min 0,0 UV-I 33 W/m 18,0 km/h (3 Bft)
22.10.2013 09:24 14,6 C 13,3 C 96 % 1007,7 hPa 0,0 l/m 0 min 0 min 0,0 UV-I 37 W/m 20,6 km/h (4 Bft)
22.10.2013 09:26 14,6 C 13,3 C 96 % 1007,7 hPa 0,0 l/m 0 min 0 min 0,0 UV-I 37 W/m 12,9 km/h (3 Bft)
22.10.2013 09:28 14,6 C 13,3 C 96 % 1007,6 hPa 0,0 l/m 0 min 0 min 0,0 UV-I 40 W/m 15,4 km/h (3 Bft)
22.10.2013 09:30 14,6 C 13,3 C 96 % 1007,6 hPa 0,0 l/m 0 min 0 min 0,0 UV-I 49 W/m 15,4 km/h (3 Bft)
22.10.2013 09:32 14,6 C 13,3 C 96 % 1007,7 hPa 0,0 l/m 0 min 0 min 0,0 UV-I 47 W/m 20,6 km/h (4 Bft)
22.10.2013 09:34 14,6 C 13,3 C 96 % 1007,7 hPa 0,0 l/m 0 min 0 min 0,0 UV-I 49 W/m 12,9 km/h (3 Bft)
22.10.2013 09:36 14,6 C 13,3 C 96 % 1007,7 hPa 0,0 l/m 0 min 0 min 0,0 UV-I 65 W/m 20,6 km/h (4 Bft)
22.10.2013 09:38 14,7 C 13,3 C 97 % 1007,8 hPa 0,0 l/m 0 min 0 min 0,0 UV-I 69 W/m 23,2 km/h (4 Bft)
22.10.2013 09:40 14,7 C 13,3 C 97 % 1007,7 hPa 0,0 l/m 0 min 0 min 0,0 UV-I 76 W/m 18,0 km/h (3 Bft)
22.10.2013 09:42 14,7 C 13,3 C 97 % 1007,7 hPa 0,0 l/m 0 min 0 min 0,0 UV-I 83 W/m 15,4 km/h (3 Bft)
22.10.2013 09:44 14,7 C 13,3 C 97 % 1007,7 hPa 0,0 l/m 0 min 0 min 0,0 UV-I 91 W/m 12,9 km/h (3 Bft)
22.10.2013 09:46 14,8 C 13,3 C 97 % 1007,7 hPa 0,0 l/m 0 min 0 min 0,0 UV-I 97 W/m 20,6 km/h (4 Bft)
22.10.2013 09:48 14,8 C 13,9 C 97 % 1007,7 hPa 0,0 l/m 0 min 0 min 0,0 UV-I 109 W/m 20,6 km/h (4 Bft)
22.10.2013 09:50 14,8 C 13,9 C 96 % 1007,7 hPa 0,0 l/m 0 min 0 min 0,0 UV-I 123 W/m 18,0 km/h (3 Bft)
22.10.2013 09:52 14,9 C 13,9 C 96 % 1007,7 hPa 0,0 l/m 2 min 0 min 0,0 UV-I 130 W/m 12,9 km/h (3 Bft)
22.10.2013 09:54 15,0 C 13,9 C 96 % 1007,7 hPa 0,0 l/m 2 min 0 min 0,0 UV-I 139 W/m 2,6 km/h (1 Bft)
22.10.2013 09:56 15,1 C 13,9 C 97 % 1007,7 hPa 0,0 l/m 2 min 0 min 0,0 UV-I 141 W/m 15,4 km/h (3 Bft)
22.10.2013 09:58 15,2 C 13,9 C 96 % 1007,7 hPa 0,0 l/m 2 min 0 min 0,0 UV-I 146 W/m 23,2 km/h (4 Bft)
22.10.2013 10:00 15,3 C 13,9 C 96 % 1007,6 hPa 0,0 l/m 2 min 0 min 0,0 UV-I 156 W/m 15,4 km/h (3 Bft)
22.10.2013 10:02 15,4 C 13,9 C 96 % 1007,6 hPa 0,0 l/m 2 min 0 min 0,0 UV-I 160 W/m 25,7 km/h (4 Bft)
22.10.2013 10:06 15,6 C 14,4 C 96 % 1007,7 hPa 0,0 l/m 2 min 0 min 0,0 UV-I 174 W/m 25,7 km/h (4 Bft)
22.10.2013 10:08 15,6 C 14,4 C 96 % 1007,6 hPa 0,0 l/m 2 min 0 min 0,0 UV-I 179 W/m 18,0 km/h (3 Bft)
22.10.2013 10:10 15,7 C 14,4 C 96 % 1007,8 hPa 0,0 l/m 2 min 0 min 0,0 UV-I 186 W/m 20,6 km/h (4 Bft)
22.10.2013 10:12 15,8 C 14,4 C 95 % 1007,7 hPa 0,0 l/m 2 min 0 min 0,0 UV-I 190 W/m 15,4 km/h (3 Bft)
22.10.2013 10:14 15,9 C 14,4 C 95 % 1007,7 hPa 0,0 l/m 0 min 0 min 0,0 UV-I 128 W/m 23,2 km/h (4 Bft)
22.10.2013 10:16 15,9 C 14,4 C 95 % 1007,6 hPa 0,0 l/m 2 min 0 min 0,0 UV-I 188 W/m 25,7 km/h (4 Bft)
22.10.2013 10:18 16,1 C 14,4 C 95 % 1007,7 hPa 0,0 l/m 2 min 0 min 0,0 UV-I 192 W/m 15,4 km/h (3 Bft)
22.10.2013 10:20 16,1 C 14,4 C 94 % 1007,7 hPa 0,0 l/m 2 min 0 min 0,0 UV-I 195 W/m 20,6 km/h (4 Bft)
22.10.2013 10:22 16,2 C 14,4 C 94 % 1007,8 hPa 0,0 l/m 2 min 0 min 0,0 UV-I 192 W/m 18,0 km/h (3 Bft)
22.10.2013 10:24 16,3 C 15,0 C 94 % 1007,8 hPa 0,0 l/m 2 min 0 min 0,0 UV-I 197 W/m 15,4 km/h (3 Bft)
22.10.2013 10:26 16,3 C 15,0 C 94 % 1007,7 hPa 0,0 l/m 2 min 0 min 0,0 UV-I 202 W/m 12,9 km/h (3 Bft)
22.10.2013 10:28 16,4 C 15,0 C 93 % 1007,7 hPa 0,0 l/m 2 min 0 min 0,0 UV-I 202 W/m 20,6 km/h (4 Bft)
22.10.2013 10:30 16,5 C 15,0 C 93 % 1007,7 hPa 0,0 l/m 2 min 0 min 0,0 UV-I 209 W/m 12,9 km/h (3 Bft)
22.10.2013 10:32 16,6 C 15,0 C 93 % 1007,6 hPa 0,0 l/m 2 min 0 min 0,0 UV-I 218 W/m 25,7 km/h (4 Bft)
22.10.2013 10:34 16,6 C 15,0 C 93 % 1007,5 hPa 0,0 l/m 2 min 0 min 0,0 UV-I 221 W/m 28,3 km/h (4 Bft)
22.10.2013 10:36 16,7 C 15,0 C 92 % 1007,5 hPa 0,0 l/m 2 min 0 min 0,0 UV-I 229 W/m 23,2 km/h (4 Bft)
22.10.2013 10:38 16,7 C 15,0 C 92 % 1007,5 hPa 0,0 l/m 2 min 0 min 0,0 UV-I 232 W/m 20,6 km/h (4 Bft)
22.10.2013 10:40 16,8 C 15,0 C 92 % 1007,4 hPa 0,0 l/m 2 min 0 min 0,0 UV-I 236 W/m 20,6 km/h (4 Bft)
22.10.2013 10:42 16,8 C 15,6 C 92 % 1007,4 hPa 0,0 l/m 2 min 0 min 0,0 UV-I 241 W/m 23,2 km/h (4 Bft)
22.10.2013 10:44 16,9 C 15,6 C 91 % 1007,4 hPa 0,0 l/m 2 min 0 min 0,0 UV-I 246 W/m 20,6 km/h (4 Bft)
22.10.2013 10:46 17,0 C 15,6 C 91 % 1007,4 hPa 0,0 l/m 2 min 0 min 0,0 UV-I 246 W/m 20,6 km/h (4 Bft)
22.10.2013 10:48 17,1 C 15,6 C 91 % 1007,3 hPa 0,0 l/m 2 min 0 min 0,0 UV-I 248 W/m 23,2 km/h (4 Bft)
22.10.2013 10:50 17,2 C 15,6 C 91 % 1007,3 hPa 0,0 l/m 2 min 0 min 0,0 UV-I 253 W/m 25,7 km/h (4 Bft)
22.10.2013 10:52 17,3 C 15,6 C 90 % 1007,3 hPa 0,0 l/m 2 min 0 min 0,0 UV-I 258 W/m 23,2 km/h (4 Bft)
22.10.2013 10:54 17,3 C 15,6 C 90 % 1007,3 hPa 0,0 l/m 2 min 0 min 0,0 UV-I 264 W/m 18,0 km/h (3 Bft)
22.10.2013 10:56 17,4 C 15,6 C 90 % 1007,2 hPa 0,0 l/m 2 min 0 min 0,0 UV-I 265 W/m 20,6 km/h (4 Bft)
22.10.2013 10:58 17,5 C 16,1 C 90 % 1007,1 hPa 0,0 l/m 2 min 0 min 0,0 UV-I 269 W/m 12,9 km/h (3 Bft)
22.10.2013 11:00 17,6 C 16,1 C 90 % 1007,1 hPa 0,0 l/m 2 min 0 min 0,0 UV-I 269 W/m 18,0 km/h (3 Bft)
22.10.2013 11:02 17,7 C 16,1 C 90 % 1007,1 hPa 0,0 l/m 2 min 0 min 0,0 UV-I 276 W/m 15,4 km/h (3 Bft)
22.10.2013 11:06 17,8 C 16,1 C 89 % 1007,0 hPa 0,0 l/m 2 min 0 min 0,0 UV-I 281 W/m 25,7 km/h (4 Bft)
22.10.2013 11:08 17,9 C 16,1 C 89 % 1006,9 hPa 0,0 l/m 2 min 0 min 0,0 UV-I 287 W/m 20,6 km/h (4 Bft)
22.10.2013 11:10 18,1 C 16,1 C 89 % 1007,0 hPa 0,0 l/m 2 min 0 min 0,0 UV-I 290 W/m 15,4 km/h (3 Bft)
22.10.2013 11:12 18,1 C 16,1 C 88 % 1007,1 hPa 0,0 l/m 2 min 0 min 0,0 UV-I 294 W/m 18,0 km/h (3 Bft)
22.10.2013 11:14 18,2 C 16,7 C 88 % 1007,0 hPa 0,0 l/m 2 min 0 min 0,5 UV-I 287 W/m 15,4 km/h (3 Bft)
22.10.2013 11:16 18,3 C 16,7 C 88 % 1006,9 hPa 0,0 l/m 2 min 0 min 0,5 UV-I 301 W/m 12,9 km/h (3 Bft)
22.10.2013 11:18 18,4 C 16,7 C 87 % 1006,9 hPa 0,0 l/m 2 min 0 min 0,5 UV-I 302 W/m 23,2 km/h (4 Bft)
22.10.2013 11:20 18,5 C 16,7 C 87 % 1006,9 hPa 0,0 l/m 2 min 0 min 0,5 UV-I 306 W/m 25,7 km/h (4 Bft)
22.10.2013 11:22 18,5 C 16,7 C 87 % 1006,8 hPa 0,0 l/m 2 min 0 min 0,5 UV-I 308 W/m 18,0 km/h (3 Bft)
22.10.2013 11:24 18,6 C 16,7 C 87 % 1006,9 hPa 0,0 l/m 2 min 0 min 0,5 UV-I 313 W/m 20,6 km/h (4 Bft)
22.10.2013 11:26 18,6 C 16,7 C 87 % 1006,8 hPa 0,0 l/m 2 min 0 min 0,6 UV-I 318 W/m 12,9 km/h (3 Bft)
22.10.2013 11:28 18,7 C 16,7 C 86 % 1006,7 hPa 0,0 l/m 2 min 0 min 0,6 UV-I 320 W/m 12,9 km/h (3 Bft)
22.10.2013 11:30 18,7 C 16,7 C 86 % 1006,7 hPa 0,0 l/m 2 min 0 min 0,6 UV-I 323 W/m 23,2 km/h (4 Bft)
22.10.2013 11:32 18,8 C 16,7 C 86 % 1006,7 hPa 0,0 l/m 2 min 0 min 0,6 UV-I 325 W/m 18,0 km/h (3 Bft)
22.10.2013 11:34 18,8 C 17,2 C 86 % 1006,7 hPa 0,0 l/m 2 min 0 min 0,6 UV-I 329 W/m 20,6 km/h (4 Bft)
22.10.2013 11:36 18,9 C 17,2 C 86 % 1006,7 hPa 0,0 l/m 2 min 0 min 0,6 UV-I 332 W/m 23,2 km/h (4 Bft)
22.10.2013 11:38 18,9 C 17,2 C 86 % 1006,7 hPa 0,0 l/m 2 min 0 min 0,7 UV-I 329 W/m 12,9 km/h (3 Bft)
22.10.2013 11:40 19,0 C 17,2 C 86 % 1006,6 hPa 0,0 l/m 2 min 0 min 0,7 UV-I 322 W/m 18,0 km/h (3 Bft)
22.10.2013 11:42 19,1 C 17,2 C 85 % 1006,6 hPa 0,0 l/m 2 min 0 min 0,7 UV-I 327 W/m 15,4 km/h (3 Bft)
22.10.2013 11:44 19,2 C 17,2 C 85 % 1006,6 hPa 0,0 l/m 2 min 0 min 0,7 UV-I 325 W/m 25,7 km/h (4 Bft)
22.10.2013 11:46 19,3 C 17,2 C 85 % 1006,5 hPa 0,0 l/m 2 min 0 min 0,7 UV-I 345 W/m 12,9 km/h (3 Bft)
22.10.2013 11:48 19,3 C 17,2 C 85 % 1006,5 hPa 0,0 l/m 2 min 0 min 0,7 UV-I 345 W/m 18,0 km/h (3 Bft)
22.10.2013 11:50 19,4 C 17,8 C 84 % 1006,5 hPa 0,0 l/m 2 min 0 min 0,7 UV-I 352 W/m 23,2 km/h (4 Bft)
22.10.2013 11:52 19,5 C 17,8 C 84 % 1006,5 hPa 0,0 l/m 2 min 0 min 0,8 UV-I 336 W/m 18,0 km/h (3 Bft)
22.10.2013 11:54 19,6 C 17,8 C 84 % 1006,4 hPa 0,0 l/m 2 min 0 min 0,8 UV-I 355 W/m 20,6 km/h (4 Bft)
22.10.2013 11:56 19,7 C 17,8 C 84 % 1006,4 hPa 0,0 l/m 2 min 0 min 0,8 UV-I 362 W/m 25,7 km/h (4 Bft)
22.10.2013 11:58 19,7 C 17,8 C 84 % 1006,4 hPa 0,0 l/m 2 min 0 min 0,8 UV-I 362 W/m 20,6 km/h (4 Bft)
22.10.2013 12:00 19,8 C 17,8 C 83 % 1006,5 hPa 0,0 l/m 2 min 0 min 0,8 UV-I 362 W/m 18,0 km/h (3 Bft)
22.10.2013 12:02 19,8 C 17,8 C 84 % 1006,5 hPa 0,0 l/m 2 min 0 min 0,8 UV-I 359 W/m 18,0 km/h (3 Bft)
22.10.2013 12:06 19,9 C 17,8 C 83 % 1006,4 hPa 0,0 l/m 2 min 0 min 0,8 UV-I 350 W/m 18,0 km/h (3 Bft)
22.10.2013 12:08 20,1 C 18,3 C 83 % 1006,4 hPa 0,0 l/m 2 min 0 min 0,9 UV-I 357 W/m 12,9 km/h (3 Bft)
22.10.2013 12:10 20,1 C 18,3 C 83 % 1006,3 hPa 0,0 l/m 2 min 0 min 0,9 UV-I 362 W/m 15,4 km/h (3 Bft)
22.10.2013 12:12 20,2 C 18,3 C 83 % 1006,3 hPa 0,0 l/m 2 min 0 min 0,9 UV-I 362 W/m 12,9 km/h (3 Bft)
22.10.2013 12:14 20,2 C 18,3 C 83 % 1006,3 hPa 0,0 l/m 2 min 0 min 0,9 UV-I 362 W/m 15,4 km/h (3 Bft)
22.10.2013 12:16 20,4 C 18,3 C 83 % 1006,2 hPa 0,0 l/m 2 min 0 min 0,9 UV-I 366 W/m 18,0 km/h (3 Bft)
22.10.2013 12:18 20,4 C 18,3 C 82 % 1006,2 hPa 0,0 l/m 2 min 0 min 0,9 UV-I 343 W/m 7,7 km/h (2 Bft)
22.10.2013 12:20 20,5 C 18,3 C 82 % 1006,2 hPa 0,0 l/m 2 min 0 min 0,8 UV-I 325 W/m 15,4 km/h (3 Bft)
22.10.2013 12:22 20,6 C 18,3 C 81 % 1006,2 hPa 0,0 l/m 2 min 0 min 0,8 UV-I 360 W/m 15,4 km/h (3 Bft)
22.10.2013 12:24 20,6 C 18,3 C 81 % 1006,2 hPa 0,0 l/m 2 min 0 min 0,8 UV-I 362 W/m 20,6 km/h (4 Bft)
22.10.2013 12:26 20,6 C 18,9 C 80 % 1006,1 hPa 0,0 l/m 2 min 0 min 0,8 UV-I 369 W/m 18,0 km/h (3 Bft)
22.10.2013 12:28 20,7 C 18,9 C 80 % 1006,1 hPa 0,0 l/m 2 min 0 min 0,7 UV-I 329 W/m 25,7 km/h (4 Bft)
22.10.2013 12:30 20,8 C 18,9 C 80 % 1006,0 hPa 0,0 l/m 2 min 0 min 0,7 UV-I 350 W/m 20,6 km/h (4 Bft)
22.10.2013 12:32 20,8 C 18,9 C 79 % 1006,1 hPa 0,0 l/m 2 min 0 min 0,7 UV-I 366 W/m 18,0 km/h (3 Bft)
22.10.2013 12:34 20,8 C 18,9 C 80 % 1006,0 hPa 0,0 l/m 2 min 0 min 0,7 UV-I 373 W/m 23,2 km/h (4 Bft)
22.10.2013 12:36 20,9 C 18,9 C 80 % 1006,0 hPa 0,0 l/m 2 min 0 min 0,7 UV-I 380 W/m 15,4 km/h (3 Bft)
22.10.2013 12:38 20,9 C 18,9 C 80 % 1005,9 hPa 0,0 l/m 2 min 0 min 0,7 UV-I 378 W/m 18,0 km/h (3 Bft)
22.10.2013 12:40 21,0 C 18,9 C 80 % 1005,9 hPa 0,0 l/m 2 min 0 min 0,7 UV-I 332 W/m 18,0 km/h (3 Bft)
22.10.2013 12:42 21,0 C 18,9 C 80 % 1005,9 hPa 0,0 l/m 2 min 0 min 0,7 UV-I 318 W/m 18,0 km/h (3 Bft)
22.10.2013 12:44 21,0 C 18,9 C 80 % 1006,0 hPa 0,0 l/m 2 min 0 min 0,7 UV-I 304 W/m 15,4 km/h (3 Bft)
22.10.2013 12:46 21,0 C 18,9 C 80 % 1005,9 hPa 0,0 l/m 2 min 0 min 0,7 UV-I 360 W/m 18,0 km/h (3 Bft)
22.10.2013 12:48 21,0 C 18,9 C 80 % 1005,9 hPa 0,0 l/m 2 min 0 min 0,7 UV-I 401 W/m 18,0 km/h (3 Bft)
22.10.2013 12:50 21,1 C 19,4 C 81 % 1005,8 hPa 0,0 l/m 2 min 0 min 0,7 UV-I 401 W/m 12,9 km/h (3 Bft)
22.10.2013 12:52 21,2 C 19,4 C 81 % 1005,9 hPa 0,0 l/m 2 min 0 min 0,7 UV-I 418 W/m 15,4 km/h (3 Bft)
22.10.2013 12:54 21,3 C 19,4 C 80 % 1005,8 hPa 0,0 l/m 2 min 0 min 0,7 UV-I 418 W/m 28,3 km/h (4 Bft)
22.10.2013 12:56 21,3 C 19,4 C 80 % 1005,7 hPa 0,0 l/m 2 min 0 min 0,7 UV-I 396 W/m 25,7 km/h (4 Bft)
22.10.2013 12:58 21,3 C 19,4 C 79 % 1005,7 hPa 0,0 l/m 2 min 0 min 0,7 UV-I 392 W/m 23,2 km/h (4 Bft)
22.10.2013 13:00 21,4 C 19,4 C 78 % 1005,6 hPa 0,0 l/m 2 min 0 min 0,7 UV-I 396 W/m 18,0 km/h (3 Bft)
22.10.2013 13:02 21,4 C 19,4 C 78 % 1005,6 hPa 0,0 l/m 2 min 0 min 0,7 UV-I 401 W/m 23,2 km/h (4 Bft)
22.10.2013 13:06 21,4 C 19,4 C 77 % 1005,7 hPa 0,0 l/m 2 min 0 min 0,7 UV-I 408 W/m 25,7 km/h (4 Bft)
22.10.2013 13:08 21,5 C 19,4 C 77 % 1005,6 hPa 0,0 l/m 2 min 0 min 0,7 UV-I 408 W/m 25,7 km/h (4 Bft)
22.10.2013 13:10 21,6 C 19,4 C 78 % 1005,6 hPa 0,0 l/m 2 min 0 min 0,8 UV-I 408 W/m 20,6 km/h (4 Bft)
22.10.2013 13:12 21,7 C 19,4 C 78 % 1005,6 hPa 0,0 l/m 2 min 0 min 0,8 UV-I 401 W/m 15,4 km/h (3 Bft)
22.10.2013 13:14 21,7 C 20,0 C 78 % 1005,5 hPa 0,0 l/m 2 min 0 min 0,9 UV-I 403 W/m 33,5 km/h (5 Bft)
22.10.2013 13:16 21,8 C 20,0 C 77 % 1005,4 hPa 0,0 l/m 2 min 0 min 0,9 UV-I 406 W/m 18,0 km/h (3 Bft)
22.10.2013 13:18 21,8 C 20,0 C 77 % 1005,4 hPa 0,0 l/m 2 min 0 min 1,0 UV-I 403 W/m 12,9 km/h (3 Bft)
22.10.2013 13:20 21,9 C 20,0 C 77 % 1005,5 hPa 0,0 l/m 2 min 0 min 1,1 UV-I 406 W/m 23,2 km/h (4 Bft)
22.10.2013 13:22 21,9 C 20,0 C 76 % 1005,3 hPa 0,0 l/m 2 min 0 min 1,1 UV-I 408 W/m 23,2 km/h (4 Bft)
22.10.2013 13:24 21,9 C 20,0 C 76 % 1005,3 hPa 0,0 l/m 2 min 0 min 1,2 UV-I 410 W/m 12,9 km/h (3 Bft)
22.10.2013 13:26 22,1 C 20,0 C 76 % 1005,3 hPa 0,0 l/m 2 min 0 min 1,2 UV-I 403 W/m 10,3 km/h (2 Bft)
22.10.2013 13:28 22,2 C 20,0 C 74 % 1005,4 hPa 0,0 l/m 2 min 0 min 1,2 UV-I 408 W/m 25,7 km/h (4 Bft)
22.10.2013 13:30 22,2 C 20,0 C 75 % 1005,4 hPa 0,0 l/m 2 min 0 min 1,2 UV-I 404 W/m 25,7 km/h (4 Bft)
22.10.2013 13:32 22,1 C 20,0 C 75 % 1005,3 hPa 0,0 l/m 2 min 0 min 1,2 UV-I 404 W/m 25,7 km/h (4 Bft)
22.10.2013 13:34 22,1 C 20,0 C 75 % 1005,3 hPa 0,0 l/m 2 min 0 min 1,2 UV-I 399 W/m 23,2 km/h (4 Bft)
22.10.2013 13:36 22,1 C 20,0 C 75 % 1005,4 hPa 0,0 l/m 2 min 0 min 1,1 UV-I 357 W/m 36,0 km/h (5 Bft)
22.10.2013 13:38 22,1 C 20,0 C 75 % 1005,2 hPa 0,0 l/m 2 min 0 min 1,1 UV-I 388 W/m 23,2 km/h (4 Bft)
22.10.2013 13:40 22,1 C 20,0 C 75 % 1005,2 hPa 0,0 l/m 2 min 0 min 1,1 UV-I 387 W/m 25,7 km/h (4 Bft)
22.10.2013 13:42 22,1 C 20,0 C 75 % 1005,2 hPa 0,0 l/m 2 min 0 min 1,1 UV-I 399 W/m 30,9 km/h (5 Bft)
22.10.2013 13:44 22,2 C 20,0 C 75 % 1005,2 hPa 0,0 l/m 2 min 0 min 1,1 UV-I 396 W/m 20,6 km/h (4 Bft)
22.10.2013 13:46 22,2 C 20,0 C 74 % 1005,1 hPa 0,0 l/m 2 min 0 min 1,1 UV-I 381 W/m 25,7 km/h (4 Bft)
22.10.2013 13:48 22,1 C 20,0 C 74 % 1005,1 hPa 0,0 l/m 2 min 0 min 1,1 UV-I 387 W/m 15,4 km/h (3 Bft)
22.10.2013 13:50 22,1 C 20,0 C 75 % 1005,0 hPa 0,0 l/m 2 min 0 min 1,2 UV-I 403 W/m 30,9 km/h (5 Bft)
22.10.2013 13:52 22,1 C 20,0 C 75 % 1005,0 hPa 0,0 l/m 2 min 0 min 1,1 UV-I 406 W/m 23,2 km/h (4 Bft)
22.10.2013 13:54 22,2 C 20,0 C 75 % 1005,0 hPa 0,0 l/m 2 min 0 min 1,2 UV-I 408 W/m 12,9 km/h (3 Bft)
22.10.2013 13:56 22,2 C 20,0 C 75 % 1004,9 hPa 0,0 l/m 2 min 0 min 1,2 UV-I 410 W/m 20,6 km/h (4 Bft)
22.10.2013 13:58 22,3 C 20,0 C 73 % 1005,1 hPa 0,0 l/m 2 min 0 min 1,2 UV-I 411 W/m 33,5 km/h (5 Bft)
22.10.2013 14:00 22,2 C 20,0 C 73 % 1004,9 hPa 0,0 l/m 2 min 0 min 1,1 UV-I 408 W/m 30,9 km/h (5 Bft)
22.10.2013 14:02 22,2 C 20,0 C 74 % 1004,9 hPa 0,0 l/m 2 min 0 min 1,1 UV-I 406 W/m 15,4 km/h (3 Bft)
22.10.2013 14:06 22,1 C 20,0 C 73 % 1005,0 hPa 0,0 l/m 2 min 0 min 1,1 UV-I 401 W/m 38,6 km/h (5 Bft)
22.10.2013 14:08 22,1 C 20,0 C 74 % 1004,9 hPa 0,0 l/m 2 min 0 min 1,1 UV-I 404 W/m 33,5 km/h (5 Bft)
22.10.2013 14:10 22,1 C 20,0 C 75 % 1004,9 hPa 0,0 l/m 2 min 0 min 1,1 UV-I 397 W/m 23,2 km/h (4 Bft)
22.10.2013 14:12 22,1 C 20,0 C 74 % 1004,9 hPa 0,0 l/m 2 min 0 min 1,0 UV-I 390 W/m 23,2 km/h (4 Bft)
22.10.2013 14:14 22,1 C 20,0 C 74 % 1004,9 hPa 0,0 l/m 2 min 0 min 1,0 UV-I 345 W/m 33,5 km/h (5 Bft)
22.10.2013 14:16 22,0 C 20,0 C 74 % 1004,9 hPa 0,0 l/m 0 min 0 min 0,6 UV-I 86 W/m 30,9 km/h (5 Bft)
22.10.2013 14:18 21,8 C 19,4 C 74 % 1004,9 hPa 0,0 l/m 0 min 0 min 0,6 UV-I 109 W/m 23,2 km/h (4 Bft)
22.10.2013 14:20 21,6 C 19,4 C 75 % 1004,9 hPa 0,0 l/m 0 min 0 min 0,6 UV-I 134 W/m 20,6 km/h (4 Bft)
22.10.2013 14:22 21,4 C 19,4 C 75 % 1004,9 hPa 0,0 l/m 0 min 0 min 0,5 UV-I 123 W/m 18,0 km/h (3 Bft)
22.10.2013 14:24 21,2 C 19,4 C 75 % 1004,8 hPa 0,0 l/m 0 min 0 min 0,5 UV-I 142 W/m 10,3 km/h (2 Bft)
22.10.2013 14:26 21,2 C 19,4 C 76 % 1004,8 hPa 0,0 l/m 0 min 0 min 0,6 UV-I 162 W/m 10,3 km/h (2 Bft)
22.10.2013 14:28 21,1 C 19,4 C 77 % 1004,8 hPa 0,0 l/m 0 min 0 min 0,6 UV-I 190 W/m 23,2 km/h (4 Bft)
22.10.2013 14:30 21,1 C 19,4 C 76 % 1004,8 hPa 0,0 l/m 0 min 0 min 0,6 UV-I 202 W/m 28,3 km/h (4 Bft)
22.10.2013 14:32 21,2 C 19,4 C 76 % 1004,9 hPa 0,0 l/m 0 min 0 min 0,6 UV-I 200 W/m 28,3 km/h (4 Bft)
22.10.2013 14:34 21,2 C 19,4 C 76 % 1004,8 hPa 0,0 l/m 0 min 0 min 0,6 UV-I 195 W/m 23,2 km/h (4 Bft)
22.10.2013 14:36 21,2 C 19,4 C 76 % 1004,7 hPa 0,0 l/m 0 min 0 min 0,6 UV-I 190 W/m 18,0 km/h (3 Bft)
22.10.2013 14:38 21,2 C 20,0 C 76 % 1004,7 hPa 0,0 l/m 0 min 0 min 0,6 UV-I 192 W/m 20,6 km/h (4 Bft)
22.10.2013 14:40 21,2 C 20,0 C 76 % 1004,7 hPa 0,0 l/m 0 min 0 min 0,6 UV-I 199 W/m 18,0 km/h (3 Bft)
22.10.2013 14:42 21,3 C 20,0 C 76 % 1004,6 hPa 0,0 l/m 0 min 0 min 0,6 UV-I 202 W/m 18,0 km/h (3 Bft)
22.10.2013 14:44 21,3 C 20,0 C 77 % 1004,7 hPa 0,0 l/m 0 min 0 min 0,6 UV-I 209 W/m 15,4 km/h (3 Bft)
22.10.2013 14:46 21,3 C 20,0 C 76 % 1004,7 hPa 0,0 l/m 2 min 0 min 0,7 UV-I 276 W/m 25,7 km/h (4 Bft)
22.10.2013 14:48 21,4 C 20,0 C 76 % 1004,6 hPa 0,0 l/m 2 min 0 min 0,9 UV-I 276 W/m 20,6 km/h (4 Bft)
22.10.2013 14:50 21,7 C 20,6 C 75 % 1004,5 hPa 0,0 l/m 2 min 0 min 1,1 UV-I 534 W/m 15,4 km/h (3 Bft)
22.10.2013 14:52 22,1 C 20,6 C 75 % 1004,4 hPa 0,0 l/m 2 min 0 min 1,0 UV-I 455 W/m 23,2 km/h (4 Bft)
22.10.2013 14:54 22,3 C 21,1 C 74 % 1004,4 hPa 0,0 l/m 2 min 0 min 1,0 UV-I 462 W/m 20,6 km/h (4 Bft)
22.10.2013 14:56 22,5 C 21,1 C 73 % 1004,5 hPa 0,0 l/m 2 min 0 min 1,0 UV-I 432 W/m 20,6 km/h (4 Bft)
22.10.2013 14:58 22,6 C 21,1 C 72 % 1004,4 hPa 0,0 l/m 2 min 0 min 0,9 UV-I 401 W/m 28,3 km/h (4 Bft)
22.10.2013 15:00 22,6 C 21,1 C 73 % 1004,3 hPa 0,0 l/m 2 min 0 min 0,9 UV-I 388 W/m 20,6 km/h (4 Bft)
22.10.2013 15:02 22,7 C 20,6 C 73 % 1004,4 hPa 0,0 l/m 2 min 0 min 0,9 UV-I 380 W/m 20,6 km/h (4 Bft)
22.10.2013 15:06 22,7 C 20,6 C 73 % 1004,3 hPa 0,0 l/m 2 min 0 min 0,8 UV-I 362 W/m 18,0 km/h (3 Bft)
22.10.2013 15:08 22,7 C 20,6 C 72 % 1004,2 hPa 0,0 l/m 2 min 0 min 0,8 UV-I 355 W/m 20,6 km/h (4 Bft)
22.10.2013 15:10 22,7 C 20,6 C 72 % 1004,3 hPa 0,0 l/m 2 min 0 min 0,8 UV-I 348 W/m 23,2 km/h (4 Bft)
22.10.2013 15:12 22,7 C 20,6 C 72 % 1004,2 hPa 0,0 l/m 2 min 0 min 0,7 UV-I 343 W/m 25,7 km/h (4 Bft)
22.10.2013 15:14 22,7 C 20,6 C 72 % 1004,2 hPa 0,0 l/m 2 min 0 min 0,7 UV-I 341 W/m 20,6 km/h (4 Bft)
22.10.2013 15:16 22,7 C 20,6 C 72 % 1004,2 hPa 0,0 l/m 2 min 0 min 0,7 UV-I 336 W/m 23,2 km/h (4 Bft)
22.10.2013 15:18 22,7 C 20,6 C 72 % 1004,2 hPa 0,0 l/m 2 min 0 min 0,7 UV-I 334 W/m 15,4 km/h (3 Bft)
22.10.2013 15:20 22,7 C 20,6 C 72 % 1004,2 hPa 0,0 l/m 2 min 0 min 0,7 UV-I 334 W/m 15,4 km/h (3 Bft)
22.10.2013 15:22 22,8 C 20,6 C 71 % 1004,2 hPa 0,0 l/m 2 min 0 min 0,7 UV-I 322 W/m 18,0 km/h (3 Bft)
22.10.2013 15:24 22,8 C 20,6 C 72 % 1004,1 hPa 0,0 l/m 2 min 0 min 0,7 UV-I 329 W/m 15,4 km/h (3 Bft)
22.10.2013 15:26 22,8 C 20,6 C 71 % 1004,0 hPa 0,0 l/m 2 min 0 min 0,6 UV-I 323 W/m 20,6 km/h (4 Bft)
22.10.2013 15:28 22,8 C 20,6 C 71 % 1004,1 hPa 0,0 l/m 2 min 0 min 0,6 UV-I 322 W/m 18,0 km/h (3 Bft)
22.10.2013 15:30 22,8 C 20,6 C 71 % 1004,0 hPa 0,0 l/m 2 min 0 min 0,6 UV-I 320 W/m 18,0 km/h (3 Bft)
22.10.2013 15:32 22,8 C 20,6 C 71 % 1004,0 hPa 0,0 l/m 2 min 0 min 0,6 UV-I 294 W/m 12,9 km/h (3 Bft)
22.10.2013 15:34 22,8 C 20,6 C 71 % 1003,9 hPa 0,0 l/m 2 min 0 min 0,6 UV-I 316 W/m 15,4 km/h (3 Bft)
22.10.2013 15:36 22,9 C 20,6 C 72 % 1003,9 hPa 0,0 l/m 2 min 0 min 0,5 UV-I 306 W/m 10,3 km/h (2 Bft)
22.10.2013 15:38 22,9 C 20,6 C 72 % 1003,9 hPa 0,0 l/m 2 min 0 min 0,5 UV-I 229 W/m 12,9 km/h (3 Bft)
22.10.2013 15:40 22,9 C 20,6 C 71 % 1003,8 hPa 0,0 l/m 2 min 0 min 0,5 UV-I 278 W/m 15,4 km/h (3 Bft)
22.10.2013 15:42 22,8 C 20,6 C 72 % 1003,8 hPa 0,0 l/m 2 min 0 min 0,0 UV-I 246 W/m 15,4 km/h (3 Bft)
22.10.2013 15:44 22,8 C 20,6 C 72 % 1003,8 hPa 0,0 l/m 0 min 0 min 0,0 UV-I 137 W/m 12,9 km/h (3 Bft)
22.10.2013 15:46 22,7 C 20,6 C 72 % 1003,8 hPa 0,0 l/m 2 min 0 min 0,0 UV-I 206 W/m 18,0 km/h (3 Bft)
22.10.2013 15:48 22,6 C 20,0 C 72 % 1003,8 hPa 0,0 l/m 0 min 0 min 0,0 UV-I 155 W/m 18,0 km/h (3 Bft)
22.10.2013 15:50 22,6 C 20,0 C 72 % 1003,6 hPa 0,0 l/m 2 min 0 min 0,0 UV-I 209 W/m 25,7 km/h (4 Bft)
22.10.2013 15:52 22,5 C 20,0 C 72 % 1003,5 hPa 0,0 l/m 2 min 0 min 0,0 UV-I 213 W/m 20,6 km/h (4 Bft)
22.10.2013 15:54 22,4 C 20,0 C 72 % 1003,5 hPa 0,0 l/m 2 min 0 min 0,0 UV-I 202 W/m 20,6 km/h (4 Bft)
22.10.2013 15:56 22,5 C 20,6 C 72 % 1003,4 hPa 0,0 l/m 2 min 0 min 0,0 UV-I 204 W/m 12,9 km/h (3 Bft)
22.10.2013 15:58 22,6 C 20,6 C 72 % 1003,4 hPa 0,0 l/m 0 min 0 min 0,0 UV-I 146 W/m 18,0 km/h (3 Bft)
22.10.2013 16:00 22,5 C 20,0 C 72 % 1003,3 hPa 0,0 l/m 0 min 0 min 0,0 UV-I 100 W/m 15,4 km/h (3 Bft)
22.10.2013 16:02 22,4 C 20,0 C 72 % 1003,3 hPa 0,0 l/m 0 min 0 min 0,0 UV-I 74 W/m 20,6 km/h (4 Bft)
22.10.2013 16:06 22,1 C 20,0 C 72 % 1003,1 hPa 0,0 l/m 0 min 0 min 0,0 UV-I 95 W/m 23,2 km/h (4 Bft)
22.10.2013 16:08 22,1 C 20,0 C 73 % 1003,1 hPa 0,0 l/m 0 min 0 min 0,0 UV-I 74 W/m 12,9 km/h (3 Bft)
22.10.2013 16:10 21,9 C 19,4 C 73 % 1003,2 hPa 0,0 l/m 0 min 0 min 0,0 UV-I 77 W/m 10,3 km/h (2 Bft)
22.10.2013 16:12 21,9 C 19,4 C 73 % 1003,3 hPa 0,0 l/m 0 min 0 min 0,0 UV-I 88 W/m 20,6 km/h (4 Bft)
22.10.2013 16:14 21,9 C 20,0 C 74 % 1003,3 hPa 0,0 l/m 2 min 0 min 0,0 UV-I 287 W/m 18,0 km/h (3 Bft)
22.10.2013 16:16 22,1 C 20,0 C 74 % 1003,3 hPa 0,0 l/m 2 min 0 min 0,0 UV-I 287 W/m 12,9 km/h (3 Bft)
22.10.2013 16:18 22,2 C 20,0 C 74 % 1003,3 hPa 0,0 l/m 2 min 0 min 0,0 UV-I 288 W/m 10,3 km/h (2 Bft)
22.10.2013 16:20 22,2 C 20,0 C 74 % 1003,3 hPa 0,0 l/m 2 min 0 min 0,0 UV-I 290 W/m 15,4 km/h (3 Bft)
22.10.2013 16:22 22,4 C 20,6 C 74 % 1003,2 hPa 0,0 l/m 2 min 0 min 0,0 UV-I 285 W/m 7,7 km/h (2 Bft)
22.10.2013 16:24 22,5 C 20,6 C 73 % 1003,2 hPa 0,0 l/m 2 min 0 min 0,0 UV-I 258 W/m 15,4 km/h (3 Bft)
22.10.2013 16:26 22,5 C 20,6 C 73 % 1003,2 hPa 0,0 l/m 2 min 0 min 0,0 UV-I 267 W/m 12,9 km/h (3 Bft)
22.10.2013 16:28 22,4 C 20,6 C 73 % 1003,2 hPa 0,0 l/m 2 min 0 min 0,0 UV-I 253 W/m 20,6 km/h (4 Bft)
22.10.2013 16:30 22,4 C 20,6 C 73 % 1003,3 hPa 0,0 l/m 2 min 0 min 0,0 UV-I 250 W/m 20,6 km/h (4 Bft)
22.10.2013 16:32 22,4 C 20,6 C 74 % 1003,3 hPa 0,0 l/m 2 min 0 min 0,0 UV-I 243 W/m 15,4 km/h (3 Bft)
22.10.2013 16:34 22,4 C 20,6 C 74 % 1003,4 hPa 0,0 l/m 2 min 0 min 0,0 UV-I 230 W/m 15,4 km/h (3 Bft)
22.10.2013 16:36 22,4 C 20,6 C 74 % 1003,5 hPa 0,0 l/m 2 min 0 min 0,0 UV-I 220 W/m 12,9 km/h (3 Bft)
22.10.2013 16:38 22,4 C 20,0 C 73 % 1003,5 hPa 0,0 l/m 2 min 0 min 0,0 UV-I 209 W/m 18,0 km/h (3 Bft)
22.10.2013 16:40 22,4 C 20,0 C 73 % 1003,5 hPa 0,0 l/m 2 min 0 min 0,0 UV-I 190 W/m 30,9 km/h (5 Bft)
22.10.2013 16:42 22,4 C 20,0 C 72 % 1003,4 hPa 0,0 l/m 2 min 0 min 0,0 UV-I 171 W/m 33,5 km/h (5 Bft)
22.10.2013 16:44 22,4 C 20,0 C 72 % 1003,3 hPa 0,0 l/m 2 min 0 min 0,0 UV-I 137 W/m 28,3 km/h (4 Bft)
22.10.2013 16:46 22,3 C 20,0 C 72 % 1003,3 hPa 0,0 l/m 2 min 0 min 0,0 UV-I 139 W/m 18,0 km/h (3 Bft)
22.10.2013 16:48 22,2 C 19,4 C 73 % 1003,2 hPa 0,0 l/m 0 min 0 min 0,0 UV-I 118 W/m 18,0 km/h (3 Bft)
22.10.2013 16:50 22,1 C 19,4 C 72 % 1003,2 hPa 0,0 l/m 0 min 0 min 0,0 UV-I 79 W/m 30,9 km/h (5 Bft)
22.10.2013 16:52 22,0 C 19,4 C 73 % 1003,3 hPa 0,0 l/m 0 min 0 min 0,0 UV-I 56 W/m 12,9 km/h (3 Bft)
22.10.2013 16:54 21,9 C 19,4 C 73 % 1003,2 hPa 0,0 l/m 0 min 0 min 0,0 UV-I 114 W/m 25,7 km/h (4 Bft)
22.10.2013 16:56 21,8 C 19,4 C 73 % 1003,2 hPa 0,0 l/m 2 min 0 min 0,0 UV-I 137 W/m 23,2 km/h (4 Bft)
22.10.2013 16:58 21,8 C 19,4 C 73 % 1003,1 hPa 0,0 l/m 0 min 0 min 0,0 UV-I 88 W/m 23,2 km/h (4 Bft)
22.10.2013 17:00 21,8 C 19,4 C 73 % 1003,1 hPa 0,0 l/m 0 min 0 min 0,0 UV-I 40 W/m 15,4 km/h (3 Bft)
22.10.2013 17:02 21,7 C 19,4 C 73 % 1003,1 hPa 0,0 l/m 0 min 0 min 0,0 UV-I 51 W/m 23,2 km/h (4 Bft)
22.10.2013 17:06 21,6 C 19,4 C 73 % 1003,0 hPa 0,0 l/m 0 min 0 min 0,0 UV-I 32 W/m 33,5 km/h (5 Bft)
22.10.2013 17:08 21,6 C 18,9 C 74 % 1003,0 hPa 0,0 l/m 0 min 0 min 0,0 UV-I 30 W/m 18,0 km/h (3 Bft)
22.10.2013 17:10 21,4 C 18,9 C 74 % 1003,1 hPa 0,0 l/m 0 min 0 min 0,0 UV-I 28 W/m 23,2 km/h (4 Bft)
22.10.2013 17:12 21,4 C 18,9 C 74 % 1003,1 hPa 0,0 l/m 0 min 0 min 0,0 UV-I 26 W/m 18,0 km/h (3 Bft)
22.10.2013 17:14 21,3 C 18,9 C 74 % 1003,0 hPa 0,0 l/m 0 min 0 min 0,0 UV-I 26 W/m 23,2 km/h (4 Bft)
22.10.2013 17:16 21,2 C 18,9 C 75 % 1003,0 hPa 0,0 l/m 0 min 0 min 0,0 UV-I 25 W/m 20,6 km/h (4 Bft)
22.10.2013 17:18 21,2 C 18,9 C 75 % 1003,0 hPa 0,0 l/m 0 min 0 min 0,0 UV-I 25 W/m 12,9 km/h (3 Bft)
22.10.2013 17:20 21,1 C 18,9 C 75 % 1003,0 hPa 0,0 l/m 0 min 0 min 0,0 UV-I 25 W/m 18,0 km/h (3 Bft)
22.10.2013 17:22 21,0 C 18,9 C 75 % 1003,0 hPa 0,0 l/m 0 min 0 min 0,0 UV-I 23 W/m 10,3 km/h (2 Bft)
22.10.2013 17:24 21,0 C 18,9 C 75 % 1002,9 hPa 0,0 l/m 0 min 0 min 0,0 UV-I 23 W/m 18,0 km/h (3 Bft)
22.10.2013 17:26 21,0 C 18,9 C 75 % 1002,9 hPa 0,0 l/m 0 min 0 min 0,0 UV-I 25 W/m 10,3 km/h (2 Bft)
22.10.2013 17:28 21,0 C 18,9 C 75 % 1002,9 hPa 0,0 l/m 0 min 0 min 0,0 UV-I 25 W/m 12,9 km/h (3 Bft)
22.10.2013 17:30 20,9 C 18,3 C 75 % 1002,9 hPa 0,0 l/m 0 min 0 min 0,0 UV-I 26 W/m 2,6 km/h (1 Bft)
22.10.2013 17:32 20,8 C 18,3 C 76 % 1002,9 hPa 0,0 l/m 0 min 0 min 0,0 UV-I 26 W/m 15,4 km/h (3 Bft)
22.10.2013 17:34 20,8 C 18,3 C 76 % 1002,8 hPa 0,0 l/m 0 min 0 min 0,0 UV-I 26 W/m 18,0 km/h (3 Bft)
22.10.2013 17:36 20,8 C 18,3 C 76 % 1002,8 hPa 0,0 l/m 0 min 0 min 0,0 UV-I 26 W/m 12,9 km/h (3 Bft)
22.10.2013 17:38 20,8 C 18,3 C 76 % 1002,9 hPa 0,0 l/m 0 min 0 min 0,0 UV-I 26 W/m 12,9 km/h (3 Bft)
22.10.2013 17:40 20,8 C 18,3 C 76 % 1002,8 hPa 0,0 l/m 0 min 0 min 0,0 UV-I 28 W/m 0,0 km/h (0 Bft)
22.10.2013 17:42 20,7 C 18,3 C 76 % 1002,8 hPa 0,0 l/m 0 min 0 min 0,0 UV-I 30 W/m 7,7 km/h (2 Bft)
22.10.2013 17:44 20,7 C 18,3 C 76 % 1002,8 hPa 0,0 l/m 0 min 0 min 0,0 UV-I 30 W/m 2,6 km/h (1 Bft)
22.10.2013 17:46 20,6 C 18,3 C 77 % 1002,7 hPa 0,0 l/m 0 min 0 min 0,0 UV-I 30 W/m 0,0 km/h (0 Bft)
22.10.2013 17:48 20,5 C 18,3 C 77 % 1002,7 hPa 0,0 l/m 0 min 0 min 0,0 UV-I 26 W/m 0,0 km/h (0 Bft)
22.10.2013 17:50 20,4 C 17,8 C 77 % 1002,8 hPa 0,0 l/m 0 min 0 min 0,0 UV-I 26 W/m 0,0 km/h (0 Bft)
22.10.2013 17:52 20,4 C 17,8 C 78 % 1002,7 hPa 0,0 l/m 0 min 0 min 0,0 UV-I 26 W/m 7,7 km/h (2 Bft)
22.10.2013 17:54 20,3 C 17,8 C 78 % 1002,8 hPa 0,0 l/m 0 min 0 min 0,0 UV-I 26 W/m 10,3 km/h (2 Bft)
22.10.2013 17:56 20,3 C 17,8 C 78 % 1002,8 hPa 0,0 l/m 0 min 0 min 0,0 UV-I 26 W/m 20,6 km/h (4 Bft)
22.10.2013 17:58 20,3 C 17,8 C 78 % 1002,8 hPa 0,0 l/m 0 min 0 min 0,0 UV-I 25 W/m 10,3 km/h (2 Bft)
22.10.2013 18:00 20,3 C 17,8 C 79 % 1002,8 hPa 0,0 l/m 0 min 0 min 0,0 UV-I 25 W/m 7,7 km/h (2 Bft)
22.10.2013 18:02 20,2 C 17,8 C 79 % 1002,8 hPa 0,0 l/m 0 min 0 min 0,0 UV-I 23 W/m 10,3 km/h (2 Bft)
22.10.2013 18:06 20,2 C 17,8 C 79 % 1002,9 hPa 0,0 l/m 0 min 0 min 0,0 UV-I 18 W/m 12,9 km/h (3 Bft)
22.10.2013 18:08 20,1 C 17,8 C 79 % 1002,9 hPa 0,0 l/m 0 min 0 min 0,0 UV-I 14 W/m 2,6 km/h (1 Bft)
22.10.2013 18:10 20,1 C 17,8 C 79 % 1002,9 hPa 0,0 l/m 0 min 0 min 0,0 UV-I 11 W/m 10,3 km/h (2 Bft)
22.10.2013 18:12 20,0 C 17,8 C 79 % 1003,0 hPa 0,0 l/m 0 min 0 min 0,0 UV-I 9 W/m 10,3 km/h (2 Bft)
22.10.2013 18:14 19,9 C 17,8 C 80 % 1003,0 hPa 0,0 l/m 0 min 0 min 0,0 UV-I 7 W/m 12,9 km/h (3 Bft)
22.10.2013 18:16 19,9 C 17,2 C 80 % 1003,1 hPa 0,0 l/m 0 min 0 min 0,0 UV-I 5 W/m 10,3 km/h (2 Bft)
22.10.2013 18:18 19,8 C 17,2 C 80 % 1003,2 hPa 0,0 l/m 0 min 0 min 0,0 UV-I 5 W/m 0,0 km/h (0 Bft)
22.10.2013 18:20 19,8 C 17,2 C 80 % 1003,3 hPa 0,0 l/m 0 min 0 min 0,0 UV-I 5 W/m 0,0 km/h (0 Bft)
22.10.2013 18:22 19,7 C 17,2 C 80 % 1003,4 hPa 0,0 l/m 0 min 0 min 0,0 UV-I 0 W/m 0,0 km/h (0 Bft)
22.10.2013 18:24 19,6 C 16,7 C 81 % 1003,5 hPa 0,0 l/m 0 min 0 min 0,0 UV-I 0 W/m 0,0 km/h (0 Bft)
22.10.2013 18:26 19,5 C 16,7 C 81 % 1003,5 hPa 0,0 l/m 0 min 0 min 0,0 UV-I 0 W/m 0,0 km/h (0 Bft)
22.10.2013 18:28 19,4 C 16,7 C 81 % 1003,4 hPa 0,0 l/m 0 min 0 min 0,0 UV-I 0 W/m 0,0 km/h (0 Bft)
22.10.2013 18:30 19,4 C 16,7 C 81 % 1003,5 hPa 0,0 l/m 0 min 0 min 0,0 UV-I 0 W/m 0,0 km/h (0 Bft)
22.10.2013 18:32 19,3 C 16,7 C 81 % 1003,6 hPa 0,0 l/m 0 min 0 min 0,0 UV-I 0 W/m 0,0 km/h (0 Bft)
22.10.2013 18:34 19,3 C 16,1 C 82 % 1003,6 hPa 0,0 l/m 0 min 0 min 0,0 UV-I 0 W/m 0,0 km/h (0 Bft)
22.10.2013 18:36 19,2 C 16,1 C 82 % 1003,6 hPa 0,0 l/m 0 min 0 min 0,0 UV-I 0 W/m 0,0 km/h (0 Bft)
22.10.2013 18:38 19,2 C 16,1 C 82 % 1003,7 hPa 0,0 l/m 0 min 0 min 0,0 UV-I 0 W/m 2,6 km/h (1 Bft)
22.10.2013 18:40 19,1 C 16,1 C 83 % 1003,7 hPa 0,0 l/m 0 min 0 min 0,0 UV-I 0 W/m 7,7 km/h (2 Bft)
22.10.2013 18:42 19,1 C 16,1 C 83 % 1003,7 hPa 0,0 l/m 0 min 0 min 0,0 UV-I 0 W/m 2,6 km/h (1 Bft)
22.10.2013 18:44 19,1 C 16,7 C 83 % 1003,7 hPa 0,0 l/m 0 min 0 min 0,0 UV-I 0 W/m 7,7 km/h (2 Bft)
22.10.2013 18:46 19,1 C 16,7 C 83 % 1003,7 hPa 0,0 l/m 0 min 0 min 0,0 UV-I 0 W/m 2,6 km/h (1 Bft)
22.10.2013 18:48 19,1 C 16,7 C 83 % 1003,6 hPa 0,0 l/m 0 min 0 min 0,0 UV-I 0 W/m 7,7 km/h (2 Bft)
22.10.2013 18:50 19,1 C 16,7 C 83 % 1003,6 hPa 0,0 l/m 0 min 0 min 0,0 UV-I 0 W/m 0,0 km/h (0 Bft)
22.10.2013 18:52 19,0 C 16,7 C 83 % 1003,5 hPa 0,0 l/m 0 min 0 min 0,0 UV-I 0 W/m 2,6 km/h (1 Bft)
22.10.2013 18:54 19,0 C 16,7 C 83 % 1003,5 hPa 0,0 l/m 0 min 0 min 0,0 UV-I 0 W/m 0,0 km/h (0 Bft)
22.10.2013 18:56 19,0 C 16,7 C 83 % 1003,5 hPa 0,0 l/m 0 min 0 min 0,0 UV-I 0 W/m 2,6 km/h (1 Bft)
22.10.2013 18:58 19,0 C 16,7 C 83 % 1003,4 hPa 0,0 l/m 0 min 0 min 0,0 UV-I 0 W/m 2,6 km/h (1 Bft)
22.10.2013 19:00 19,0 C 16,7 C 83 % 1003,4 hPa 0,0 l/m 0 min 0 min 0,0 UV-I 0 W/m 0,0 km/h (0 Bft)
22.10.2013 19:02 18,9 C 16,1 C 83 % 1003,3 hPa 0,0 l/m 0 min 0 min 0,0 UV-I 0 W/m 0,0 km/h (0 Bft)
22.10.2013 19:05 18,9 C 16,1 C 83 % 1003,3 hPa 0,0 l/m 0 min 0 min 0,0 UV-I 0 W/m 0,0 km/h (0 Bft)
22.10.2013 19:06 18,9 C 16,1 C 83 % 1003,3 hPa 0,0 l/m 0 min 0 min 0,0 UV-I 0 W/m 2,6 km/h (1 Bft)
22.10.2013 19:08 18,8 C 16,1 C 83 % 1003,2 hPa 0,0 l/m 0 min 0 min 0,0 UV-I 0 W/m 0,0 km/h (0 Bft)
22.10.2013 19:10 18,8 C 16,1 C 83 % 1003,2 hPa 0,0 l/m 0 min 0 min 0,0 UV-I 0 W/m 0,0 km/h (0 Bft)
22.10.2013 19:12 18,8 C 16,1 C 83 % 1003,1 hPa 0,0 l/m 0 min 0 min 0,0 UV-I 0 W/m 0,0 km/h (0 Bft)
22.10.2013 19:14 18,7 C 16,1 C 83 % 1003,2 hPa 0,0 l/m 0 min 0 min 0,0 UV-I 0 W/m 0,0 km/h (0 Bft)
22.10.2013 19:16 18,7 C 16,1 C 83 % 1003,2 hPa 0,0 l/m 0 min 0 min 0,0 UV-I 0 W/m 0,0 km/h (0 Bft)
22.10.2013 19:18 18,7 C 16,1 C 84 % 1003,2 hPa 0,0 l/m 0 min 0 min 0,0 UV-I 0 W/m 0,0 km/h (0 Bft)
22.10.2013 19:20 18,7 C 15,6 C 84 % 1003,2 hPa 0,0 l/m 0 min 0 min 0,0 UV-I 0 W/m 0,0 km/h (0 Bft)
22.10.2013 19:22 18,6 C 15,6 C 84 % 1003,3 hPa 0,0 l/m 0 min 0 min 0,0 UV-I 0 W/m 0,0 km/h (0 Bft)
22.10.2013 19:24 18,6 C 15,6 C 84 % 1003,3 hPa 0,0 l/m 0 min 0 min 0,0 UV-I 0 W/m 0,0 km/h (0 Bft)
22.10.2013 19:26 18,5 C 15,6 C 84 % 1003,3 hPa 0,0 l/m 0 min 0 min 0,0 UV-I 0 W/m 0,0 km/h (0 Bft)
22.10.2013 19:28 18,5 C 15,6 C 84 % 1003,2 hPa 0,0 l/m 0 min 0 min 0,0 UV-I 0 W/m 2,6 km/h (1 Bft)
22.10.2013 19:30 18,5 C 15,6 C 84 % 1003,3 hPa 0,0 l/m 0 min 0 min 0,0 UV-I 0 W/m 0,0 km/h (0 Bft)
22.10.2013 19:32 18,4 C 15,6 C 84 % 1003,3 hPa 0,0 l/m 0 min 0 min 0,0 UV-I 0 W/m 0,0 km/h (0 Bft)
22.10.2013 19:34 18,4 C 15,6 C 84 % 1003,2 hPa 0,0 l/m 0 min 0 min 0,0 UV-I 0 W/m 0,0 km/h (0 Bft)
22.10.2013 19:36 18,4 C 15,6 C 84 % 1003,2 hPa 0,0 l/m 0 min 0 min 0,0 UV-I 0 W/m 2,6 km/h (1 Bft)
22.10.2013 19:38 18,4 C 15,6 C 84 % 1003,2 hPa 0,0 l/m 0 min 0 min 0,0 UV-I 0 W/m 2,6 km/h (1 Bft)
22.10.2013 19:40 18,4 C 15,6 C 84 % 1003,2 hPa 0,0 l/m 0 min 0 min 0,0 UV-I 0 W/m 2,6 km/h (1 Bft)
22.10.2013 19:42 18,4 C 15,6 C 84 % 1003,1 hPa 0,0 l/m 0 min 0 min 0,0 UV-I 0 W/m 0,0 km/h (0 Bft)
22.10.2013 19:44 18,4 C 15,6 C 84 % 1003,1 hPa 0,0 l/m 0 min 0 min 0,0 UV-I 0 W/m 0,0 km/h (0 Bft)
22.10.2013 19:46 18,4 C 15,6 C 84 % 1003,0 hPa 0,0 l/m 0 min 0 min 0,0 UV-I 0 W/m 0,0 km/h (0 Bft)
22.10.2013 19:48 18,4 C 15,6 C 84 % 1003,0 hPa 0,0 l/m 0 min 0 min 0,0 UV-I 0 W/m 0,0 km/h (0 Bft)
22.10.2013 19:50 18,4 C 15,6 C 84 % 1003,0 hPa 0,0 l/m 0 min 0 min 0,0 UV-I 0 W/m 0,0 km/h (0 Bft)
22.10.2013 19:52 18,3 C 15,6 C 84 % 1002,9 hPa 0,0 l/m 0 min 0 min 0,0 UV-I 0 W/m 0,0 km/h (0 Bft)
22.10.2013 19:54 18,3 C 15,6 C 85 % 1002,9 hPa 0,0 l/m 0 min 0 min 0,0 UV-I 0 W/m 0,0 km/h (0 Bft)
22.10.2013 19:56 18,3 C 15,6 C 84 % 1002,9 hPa 0,0 l/m 0 min 0 min 0,0 UV-I 0 W/m 2,6 km/h (1 Bft)
22.10.2013 19:58 18,2 C 15,6 C 85 % 1002,8 hPa 0,0 l/m 0 min 0 min 0,0 UV-I 0 W/m 2,6 km/h (1 Bft)
22.10.2013 20:00 18,2 C 15,6 C 85 % 1002,7 hPa 0,0 l/m 0 min 0 min 0,0 UV-I 0 W/m 0,0 km/h (0 Bft)
22.10.2013 20:02 18,2 C 15,6 C 85 % 1002,7 hPa 0,0 l/m 0 min 0 min 0,0 UV-I 0 W/m 0,0 km/h (0 Bft)
22.10.2013 20:06 18,1 C 15,6 C 85 % 1002,7 hPa 0,0 l/m 0 min 0 min 0,0 UV-I 0 W/m 2,6 km/h (1 Bft)
22.10.2013 20:08 18,1 C 15,6 C 85 % 1002,6 hPa 0,0 l/m 0 min 0 min 0,0 UV-I 0 W/m 2,6 km/h (1 Bft)
22.10.2013 20:10 18,1 C 15,6 C 85 % 1002,7 hPa 0,0 l/m 0 min 0 min 0,0 UV-I 0 W/m 0,0 km/h (0 Bft)
22.10.2013 20:12 18,1 C 15,6 C 85 % 1002,6 hPa 0,0 l/m 0 min 0 min 0,0 UV-I 0 W/m 5,1 km/h (1 Bft)
22.10.2013 20:14 18,1 C 15,6 C 85 % 1002,6 hPa 0,0 l/m 0 min 0 min 0,0 UV-I 0 W/m 2,6 km/h (1 Bft)
22.10.2013 20:16 18,1 C 15,6 C 85 % 1002,6 hPa 0,0 l/m 0 min 0 min 0,0 UV-I 0 W/m 0,0 km/h (0 Bft)
22.10.2013 20:18 18,2 C 15,6 C 85 % 1002,6 hPa 0,0 l/m 0 min 0 min 0,0 UV-I 0 W/m 2,6 km/h (1 Bft)
22.10.2013 20:20 18,2 C 15,6 C 85 % 1002,6 hPa 0,0 l/m 0 min 0 min 0,0 UV-I 0 W/m 0,0 km/h (0 Bft)
22.10.2013 20:22 18,2 C 15,6 C 85 % 1002,6 hPa 0,0 l/m 0 min 0 min 0,0 UV-I 0 W/m 0,0 km/h (0 Bft)
22.10.2013 20:24 18,2 C 15,6 C 85 % 1002,5 hPa 0,0 l/m 0 min 0 min 0,0 UV-I 0 W/m 2,6 km/h (1 Bft)
22.10.2013 20:26 18,2 C 15,6 C 85 % 1002,4 hPa 0,0 l/m 0 min 0 min 0,0 UV-I 0 W/m 2,6 km/h (1 Bft)
22.10.2013 20:28 18,2 C 15,6 C 85 % 1002,4 hPa 0,0 l/m 0 min 0 min 0,0 UV-I 0 W/m 7,7 km/h (2 Bft)
22.10.2013 20:30 18,2 C 16,1 C 85 % 1002,4 hPa 0,0 l/m 0 min 0 min 0,0 UV-I 0 W/m 5,1 km/h (1 Bft)
22.10.2013 20:32 18,3 C 16,1 C 85 % 1002,2 hPa 0,0 l/m 0 min 0 min 0,0 UV-I 0 W/m 7,7 km/h (2 Bft)
22.10.2013 20:34 18,3 C 16,1 C 85 % 1002,2 hPa 0,0 l/m 0 min 0 min 0,0 UV-I 0 W/m 7,7 km/h (2 Bft)
22.10.2013 20:36 18,3 C 16,1 C 85 % 1002,2 hPa 0,0 l/m 0 min 0 min 0,0 UV-I 0 W/m 2,6 km/h (1 Bft)
22.10.2013 20:38 18,4 C 16,1 C 85 % 1002,2 hPa 0,0 l/m 0 min 0 min 0,0 UV-I 0 W/m 2,6 km/h (1 Bft)
22.10.2013 20:40 18,4 C 16,1 C 85 % 1002,2 hPa 0,0 l/m 0 min 0 min 0,0 UV-I 0 W/m 2,6 km/h (1 Bft)
22.10.2013 20:42 18,4 C 16,1 C 85 % 1002,3 hPa 0,0 l/m 0 min 0 min 0,0 UV-I 0 W/m 0,0 km/h (0 Bft)
22.10.2013 20:44 18,4 C 16,1 C 85 % 1002,2 hPa 0,0 l/m 0 min 0 min 0,0 UV-I 0 W/m 10,3 km/h (2 Bft)
22.10.2013 20:46 18,4 C 16,1 C 85 % 1002,2 hPa 0,0 l/m 0 min 0 min 0,0 UV-I 0 W/m 2,6 km/h (1 Bft)
22.10.2013 20:48 18,4 C 16,1 C 85 % 1002,2 hPa 0,0 l/m 0 min 0 min 0,0 UV-I 0 W/m 2,6 km/h (1 Bft)
22.10.2013 20:50 18,4 C 16,1 C 84 % 1002,2 hPa 0,0 l/m 0 min 0 min 0,0 UV-I 0 W/m 7,7 km/h (2 Bft)
22.10.2013 20:52 18,4 C 16,1 C 84 % 1002,1 hPa 0,0 l/m 0 min 0 min 0,0 UV-I 0 W/m 12,9 km/h (3 Bft)
22.10.2013 20:54 18,4 C 16,7 C 84 % 1002,1 hPa 0,0 l/m 0 min 0 min 0,0 UV-I 0 W/m 7,7 km/h (2 Bft)
22.10.2013 20:56 18,4 C 16,1 C 84 % 1002,1 hPa 0,0 l/m 0 min 0 min 0,0 UV-I 0 W/m 12,9 km/h (3 Bft)
22.10.2013 20:58 18,4 C 16,7 C 84 % 1002,1 hPa 0,0 l/m 0 min 0 min 0,0 UV-I 0 W/m 10,3 km/h (2 Bft)
22.10.2013 21:00 18,4 C 16,1 C 84 % 1002,1 hPa 0,0 l/m 0 min 0 min 0,0 UV-I 0 W/m 10,3 km/h (2 Bft)
22.10.2013 21:02 18,5 C 16,7 C 84 % 1002,1 hPa 0,0 l/m 0 min 0 min 0,0 UV-I 0 W/m 18,0 km/h (3 Bft)
22.10.2013 21:06 18,5 C 16,7 C 84 % 1002,0 hPa 0,0 l/m 0 min 0 min 0,0 UV-I 0 W/m 10,3 km/h (2 Bft)
22.10.2013 21:08 18,5 C 16,7 C 84 % 1002,0 hPa 0,0 l/m 0 min 0 min 0,0 UV-I 0 W/m 2,6 km/h (1 Bft)
22.10.2013 21:10 18,4 C 16,7 C 84 % 1002,0 hPa 0,0 l/m 0 min 0 min 0,0 UV-I 0 W/m 7,7 km/h (2 Bft)
22.10.2013 21:12 18,4 C 16,7 C 84 % 1002,0 hPa 0,0 l/m 0 min 0 min 0,0 UV-I 0 W/m 12,9 km/h (3 Bft)
22.10.2013 21:14 18,4 C 16,7 C 84 % 1002,0 hPa 0,0 l/m 0 min 0 min 0,0 UV-I 0 W/m 2,6 km/h (1 Bft)
22.10.2013 21:16 18,4 C 16,7 C 84 % 1002,0 hPa 0,0 l/m 0 min 0 min 0,0 UV-I 0 W/m 15,4 km/h (3 Bft)
22.10.2013 21:18 18,4 C 16,7 C 84 % 1001,9 hPa 0,0 l/m 0 min 0 min 0,0 UV-I 0 W/m 10,3 km/h (2 Bft)
22.10.2013 21:20 18,4 C 16,7 C 84 % 1001,8 hPa 0,0 l/m 0 min 0 min 0,0 UV-I 0 W/m 20,6 km/h (4 Bft)
22.10.2013 21:22 18,4 C 16,7 C 84 % 1001,9 hPa 0,0 l/m 0 min 0 min 0,0 UV-I 0 W/m 20,6 km/h (4 Bft)
22.10.2013 21:24 18,4 C 16,7 C 84 % 1001,7 hPa 0,0 l/m 0 min 0 min 0,0 UV-I 0 W/m 20,6 km/h (4 Bft)
22.10.2013 21:26 18,4 C 16,7 C 84 % 1001,6 hPa 0,0 l/m 0 min 0 min 0,0 UV-I 0 W/m 10,3 km/h (2 Bft)
22.10.2013 21:28 18,4 C 16,7 C 84 % 1001,6 hPa 0,0 l/m 0 min 0 min 0,0 UV-I 0 W/m 15,4 km/h (3 Bft)
22.10.2013 21:30 18,4 C 16,7 C 84 % 1001,6 hPa 0,0 l/m 0 min 0 min 0,0 UV-I 0 W/m 15,4 km/h (3 Bft)
22.10.2013 21:32 18,4 C 16,1 C 84 % 1001,6 hPa 0,0 l/m 0 min 0 min 0,0 UV-I 0 W/m 15,4 km/h (3 Bft)
22.10.2013 21:34 18,4 C 16,7 C 85 % 1001,6 hPa 0,0 l/m 0 min 0 min 0,0 UV-I 0 W/m 10,3 km/h (2 Bft)
22.10.2013 21:36 18,4 C 16,7 C 85 % 1001,6 hPa 0,0 l/m 0 min 0 min 0,0 UV-I 0 W/m 5,1 km/h (1 Bft)
22.10.2013 21:38 18,3 C 16,7 C 85 % 1001,6 hPa 0,0 l/m 0 min 0 min 0,0 UV-I 0 W/m 12,9 km/h (3 Bft)
22.10.2013 21:40 18,3 C 16,7 C 85 % 1001,5 hPa 0,0 l/m 0 min 0 min 0,0 UV-I 0 W/m 10,3 km/h (2 Bft)
22.10.2013 21:42 18,3 C 16,1 C 85 % 1001,5 hPa 0,0 l/m 0 min 0 min 0,0 UV-I 0 W/m 2,6 km/h (1 Bft)
22.10.2013 21:44 18,3 C 16,7 C 85 % 1001,5 hPa 0,0 l/m 0 min 0 min 0,0 UV-I 0 W/m 7,7 km/h (2 Bft)
22.10.2013 21:46 18,3 C 16,1 C 85 % 1001,5 hPa 0,0 l/m 0 min 0 min 0,0 UV-I 0 W/m 2,6 km/h (1 Bft)
22.10.2013 21:48 18,3 C 16,1 C 85 % 1001,5 hPa 0,0 l/m 0 min 0 min 0,0 UV-I 0 W/m 12,9 km/h (3 Bft)
22.10.2013 21:50 18,3 C 16,1 C 85 % 1001,5 hPa 0,0 l/m 0 min 0 min 0,0 UV-I 0 W/m 7,7 km/h (2 Bft)
22.10.2013 21:52 18,3 C 16,1 C 85 % 1001,4 hPa 0,0 l/m 0 min 0 min 0,0 UV-I 0 W/m 18,0 km/h (3 Bft)
22.10.2013 21:54 18,3 C 16,1 C 85 % 1001,4 hPa 0,0 l/m 0 min 0 min 0,0 UV-I 0 W/m 10,3 km/h (2 Bft)
22.10.2013 21:56 18,3 C 16,1 C 85 % 1001,4 hPa 0,0 l/m 0 min 0 min 0,0 UV-I 0 W/m 2,6 km/h (1 Bft)
22.10.2013 21:58 18,2 C 16,1 C 85 % 1001,3 hPa 0,0 l/m 0 min 0 min 0,0 UV-I 0 W/m 2,6 km/h (1 Bft)
22.10.2013 22:00 18,2 C 16,1 C 85 % 1001,3 hPa 0,0 l/m 0 min 0 min 0,0 UV-I 0 W/m 2,6 km/h (1 Bft)
22.10.2013 22:02 18,2 C 16,1 C 85 % 1001,3 hPa 0,0 l/m 0 min 0 min 0,0 UV-I 0 W/m 2,6 km/h (1 Bft)
22.10.2013 22:06 18,2 C 16,1 C 85 % 1001,3 hPa 0,0 l/m 0 min 0 min 0,0 UV-I 0 W/m 12,9 km/h (3 Bft)
22.10.2013 22:08 18,2 C 16,1 C 85 % 1001,4 hPa 0,0 l/m 0 min 2 min 0,0 UV-I 0 W/m 7,7 km/h (2 Bft)
22.10.2013 22:10 18,2 C 16,1 C 85 % 1001,4 hPa 0,0 l/m 0 min 2 min 0,0 UV-I 0 W/m 12,9 km/h (3 Bft)
22.10.2013 22:12 18,2 C 16,1 C 85 % 1001,4 hPa 0,0 l/m 0 min 0 min 0,0 UV-I 0 W/m 12,9 km/h (3 Bft)
22.10.2013 22:14 18,3 C 16,1 C 85 % 1001,5 hPa 0,0 l/m 0 min 0 min 0,0 UV-I 0 W/m 10,3 km/h (2 Bft)
22.10.2013 22:16 18,3 C 16,7 C 85 % 1001,4 hPa 0,0 l/m 0 min 0 min 0,0 UV-I 0 W/m 12,9 km/h (3 Bft)
22.10.2013 22:18 18,3 C 16,7 C 85 % 1001,5 hPa 0,0 l/m 0 min 0 min 0,0 UV-I 0 W/m 20,6 km/h (4 Bft)
22.10.2013 22:20 18,3 C 16,7 C 85 % 1001,4 hPa 0,0 l/m 0 min 2 min 0,0 UV-I 0 W/m 15,4 km/h (3 Bft)
22.10.2013 22:22 18,3 C 16,1 C 85 % 1001,7 hPa 0,0 l/m 0 min 2 min 0,0 UV-I 0 W/m 12,9 km/h (3 Bft)
22.10.2013 22:24 18,4 C 16,1 C 85 % 1002,3 hPa 0,0 l/m 0 min 2 min 0,0 UV-I 0 W/m 10,3 km/h (2 Bft)
22.10.2013 22:26 18,3 C 15,0 C 86 % 1002,3 hPa 0,6 l/m 0 min 2 min 0,0 UV-I 0 W/m 46,3 km/h (6 Bft)
22.10.2013 22:28 18,0 C 14,4 C 86 % 1004,3 hPa 2,0 l/m 0 min 2 min 0,0 UV-I 0 W/m 51,5 km/h (7 Bft)
22.10.2013 22:30 17,5 C 13,9 C 87 % 1003,9 hPa 1,8 l/m 0 min 2 min 0,0 UV-I 0 W/m 12,9 km/h (3 Bft)
22.10.2013 22:32 17,0 C 13,9 C 88 % 1003,8 hPa 1,4 l/m 0 min 2 min 0,0 UV-I 0 W/m 12,9 km/h (3 Bft)
22.10.2013 22:34 16,6 C 13,9 C 89 % 1003,7 hPa 0,4 l/m 0 min 2 min 0,0 UV-I 0 W/m 12,9 km/h (3 Bft)
22.10.2013 22:36 16,2 C 13,9 C 89 % 1003,7 hPa 0,2 l/m 0 min 2 min 0,0 UV-I 0 W/m 5,1 km/h (1 Bft)
22.10.2013 22:38 16,0 C 13,9 C 91 % 1003,6 hPa 0,0 l/m 0 min 2 min 0,0 UV-I 0 W/m 18,0 km/h (3 Bft)
22.10.2013 22:40 15,8 C 13,9 C 91 % 1003,6 hPa 0,2 l/m 0 min 2 min 0,0 UV-I 0 W/m 15,4 km/h (3 Bft)
22.10.2013 22:42 15,7 C 13,9 C 92 % 1003,5 hPa 0,0 l/m 0 min 2 min 0,0 UV-I 0 W/m 10,3 km/h (2 Bft)
22.10.2013 22:44 15,6 C 13,9 C 92 % 1003,6 hPa 0,0 l/m 0 min 2 min 0,0 UV-I 0 W/m 23,2 km/h (4 Bft)
22.10.2013 22:46 15,6 C 13,9 C 93 % 1003,5 hPa 0,2 l/m 0 min 2 min 0,0 UV-I 0 W/m 15,4 km/h (3 Bft)
22.10.2013 22:48 15,5 C 13,9 C 93 % 1003,6 hPa 0,0 l/m 0 min 2 min 0,0 UV-I 0 W/m 23,2 km/h (4 Bft)
22.10.2013 22:50 15,5 C 13,9 C 94 % 1003,6 hPa 0,0 l/m 0 min 2 min 0,0 UV-I 0 W/m 5,1 km/h (1 Bft)
22.10.2013 22:52 15,4 C 13,9 C 94 % 1003,7 hPa 0,2 l/m 0 min 2 min 0,0 UV-I 0 W/m 10,3 km/h (2 Bft)
22.10.2013 22:54 15,4 C 13,9 C 94 % 1003,4 hPa 0,2 l/m 0 min 2 min 0,0 UV-I 0 W/m 18,0 km/h (3 Bft)
22.10.2013 22:56 15,4 C 13,9 C 94 % 1003,1 hPa 0,2 l/m 0 min 2 min 0,0 UV-I 0 W/m 5,1 km/h (1 Bft)
22.10.2013 22:58 15,3 C 13,9 C 95 % 1003,3 hPa 0,2 l/m 0 min 2 min 0,0 UV-I 0 W/m 7,7 km/h (2 Bft)
22.10.2013 23:00 15,3 C 13,9 C 95 % 1003,4 hPa 0,2 l/m 0 min 2 min 0,0 UV-I 0 W/m 10,3 km/h (2 Bft)
22.10.2013 23:02 15,3 C 13,9 C 95 % 1003,5 hPa 0,2 l/m 0 min 2 min 0,0 UV-I 0 W/m 5,1 km/h (1 Bft)
22.10.2013 23:06 15,3 C 13,9 C 95 % 1003,4 hPa 0,2 l/m 0 min 2 min 0,0 UV-I 0 W/m 5,1 km/h (1 Bft)
22.10.2013 23:08 15,2 C 13,9 C 95 % 1003,3 hPa 0,2 l/m 0 min 2 min 0,0 UV-I 0 W/m 0,0 km/h (0 Bft)
22.10.2013 23:10 15,2 C 13,9 C 95 % 1003,1 hPa 0,0 l/m 0 min 2 min 0,0 UV-I 0 W/m 5,1 km/h (1 Bft)
22.10.2013 23:12 15,2 C 13,9 C 96 % 1003,1 hPa 0,2 l/m 0 min 2 min 0,0 UV-I 0 W/m 2,6 km/h (1 Bft)
22.10.2013 23:14 15,2 C 13,9 C 96 % 1003,0 hPa 0,0 l/m 0 min 2 min 0,0 UV-I 0 W/m 0,0 km/h (0 Bft)
22.10.2013 23:16 15,2 C 13,9 C 96 % 1002,8 hPa 0,0 l/m 0 min 2 min 0,0 UV-I 0 W/m 0,0 km/h (0 Bft)
22.10.2013 23:18 15,2 C 13,9 C 96 % 1002,8 hPa 0,0 l/m 0 min 2 min 0,0 UV-I 0 W/m 0,0 km/h (0 Bft)
22.10.2013 23:20 15,1 C 13,9 C 96 % 1002,8 hPa 0,0 l/m 0 min 2 min 0,0 UV-I 0 W/m 0,0 km/h (0 Bft)
22.10.2013 23:22 15,1 C 13,3 C 96 % 1002,7 hPa 0,0 l/m 0 min 2 min 0,0 UV-I 0 W/m 2,6 km/h (1 Bft)
22.10.2013 23:24 15,1 C 13,3 C 96 % 1002,8 hPa 0,0 l/m 0 min 0 min 0,0 UV-I 0 W/m 0,0 km/h (0 Bft)
22.10.2013 23:26 15,1 C 13,9 C 96 % 1002,8 hPa 0,0 l/m 0 min 0 min 0,0 UV-I 0 W/m 0,0 km/h (0 Bft)
22.10.2013 23:28 15,1 C 13,3 C 96 % 1002,7 hPa 0,0 l/m 0 min 0 min 0,0 UV-I 0 W/m 0,0 km/h (0 Bft)
22.10.2013 23:30 15,1 C 13,3 C 97 % 1002,6 hPa 0,0 l/m 0 min 0 min 0,0 UV-I 0 W/m 2,6 km/h (1 Bft)
22.10.2013 23:32 15,0 C 13,3 C 97 % 1002,6 hPa 0,0 l/m 0 min 0 min 0,0 UV-I 0 W/m 0,0 km/h (0 Bft)
22.10.2013 23:34 15,0 C 13,3 C 97 % 1002,6 hPa 0,0 l/m 0 min 0 min 0,0 UV-I 0 W/m 0,0 km/h (0 Bft)
22.10.2013 23:36 15,0 C 13,3 C 97 % 1002,4 hPa 0,0 l/m 0 min 0 min 0,0 UV-I 0 W/m 0,0 km/h (0 Bft)
22.10.2013 23:38 15,0 C 13,3 C 97 % 1002,2 hPa 0,0 l/m 0 min 0 min 0,0 UV-I 0 W/m 0,0 km/h (0 Bft)
22.10.2013 23:40 14,9 C 13,3 C 97 % 1002,4 hPa 0,0 l/m 0 min 0 min 0,0 UV-I 0 W/m 0,0 km/h (0 Bft)
22.10.2013 23:42 14,9 C 13,3 C 97 % 1002,4 hPa 0,0 l/m 0 min 0 min 0,0 UV-I 0 W/m 0,0 km/h (0 Bft)
22.10.2013 23:44 14,9 C 13,3 C 97 % 1002,5 hPa 0,0 l/m 0 min 0 min 0,0 UV-I 0 W/m 2,6 km/h (1 Bft)
22.10.2013 23:46 14,9 C 13,3 C 97 % 1002,4 hPa 0,0 l/m 0 min 0 min 0,0 UV-I 0 W/m 2,6 km/h (1 Bft)
22.10.2013 23:48 14,9 C 13,3 C 97 % 1002,3 hPa 0,0 l/m 0 min 0 min 0,0 UV-I 0 W/m 2,6 km/h (1 Bft)
22.10.2013 23:50 14,9 C 13,3 C 97 % 1002,4 hPa 0,0 l/m 0 min 0 min 0,0 UV-I 0 W/m 10,3 km/h (2 Bft)
22.10.2013 23:52 14,9 C 13,3 C 97 % 1002,4 hPa 0,0 l/m 0 min 0 min 0,0 UV-I 0 W/m 2,6 km/h (1 Bft)
22.10.2013 23:54 14,9 C 13,3 C 97 % 1002,5 hPa 0,0 l/m 0 min 0 min 0,0 UV-I 0 W/m 12,9 km/h (3 Bft)
22.10.2013 23:56 14,9 C 13,3 C 97 % 1002,5 hPa 0,0 l/m 0 min 0 min 0,0 UV-I 0 W/m 7,7 km/h (2 Bft)
22.10.2013 23:58 14,8 C 13,3 C 97 % 1002,5 hPa 0,0 l/m 0 min 2 min 0,0 UV-I 0 W/m 10,3 km/h (2 Bft)
_ Min-Zeit 01:02 00:30 15:22 21:58 - - - - - 00:08
Minimum _ 13,2 C 11,7 C 71 % 1001,3 hPa - - - - - 0,0 km/h (0 Bft)
_ Max-Zeit 15:36 14:54 08:12 00:00 22:28 09:52 02:56 13:24 14:50 22:28
Maximum _ 22,9 C 21,1 C 97 % 1011,6 hPa 2,0 l/m 2 min 2 min 1,2 UV-I 534 W/m 51,5 km/h
SW (7 Bft)
Durchschnitt _ 17,2 C 15,4 C 88 % 1006,2 hPa #8,6 l/m #5:54 h #1:18 h 0,8 UV-I 211 W/m 12,3 km/h (3 Bft)
© 2013 W. Hausmann